GFSSE_con_mucape_000.txt.gz
CAPE
128 348 885 1333 1573 1665 1743 1743 2175 2189 2138 2155 1983 1866 1625 1224 946 909 870 829 861 1009 682 396 543 882 928 996 788 1027 1162 1393 1283 1673 1996 1271 930 1026 1010 1419 1149 1368 1868
118 322 798 1214 1509 1737 2002 1861 2159 2393 2423 2279 2051 1879 1556 1230 1025 1087 945 967 591 699 428 397 735 966 1041 927 803 870 951 1089 1271 1315 1563 1715 1529 1341 1293 1405 1077 1359 1864
607 423 724 1082 1416 1804 2037 2182 2300 2568 2585 2448 2225 1952 1712 1426 1280 1198 1146 564 448 290 200 263 699 830 930 594 267 429 802 802 1019 1178 1513 1167 1012 1400 1322 897 841 1797 1789
834 733 914 1145 1528 1788 1860 2029 2103 2176 2181 2437 2189 2025 1866 1577 1516 1413 796 595 325 276 335 601 442 230 530 144 131 103 449 998 948 1044 1237 1225 938 1258 1240 777 1097 1767 1616
1004 925 999 1020 1438 1852 1880 2020 2000 2029 2161 2398 2178 2071 1999 1743 1631 1285 525 361 245 281 389 526 742 353 200 44 19 0 378 599 912 985 935 835 667 1013 1362 854 1607 1415 1274
919 953 1092 1184 1439 1916 2003 1894 1960 1984 1906 2133 2410 2188 1907 1696 1355 1331 572 438 463 592 652 744 490 800 171 126 216 389 661 621 659 592 896 821 668 1170 1492 1339 1086 1382 1242
936 1143 1202 1258 1413 1631 1525 1648 1811 1913 1980 2053 2146 2244 1805 1504 1075 545 458 594 832 577 787 757 1195 555 410 415 298 416 427 386 589 733 801 698 683 1600 1574 1238 1223 1280 1192
1139 1303 1308 1446 1359 1319 1365 1345 1356 1541 1800 1980 1872 1769 1748 1540 1345 1180 1010 998 594 422 230 185 178 318 105 107 137 257 121 257 709 919 949 947 715 1519 1814 1509 1047 977 994
1595 1556 1424 1461 1195 1021 946 873 849 1203 1523 1746 1540 1306 1105 1075 1160 809 618 547 437 569 716 771 300 238 383 450 287 280 460 564 752 742 503 608 580 1137 1866 1885 1483 1208 1092
2061 1930 1701 1621 1492 1254 584 686 785 846 1154 1515 1254 960 647 706 626 348 238 298 230 185 113 181 339 395 334 267 179 204 224 209 187 200 299 406 720 1578 1817 1847 1548 1572 1156
2249 2231 1946 1904 1618 1353 1023 890 858 916 1001 1319 1418 768 412 203 117 98 9 115 70 11 0 0 79 163 146 187 162 185 55 0 0 3 39 194 586 887 1492 1445 1525 1462 1271
1363 1356 1611 1798 1650 1431 1193 976 1040 861 791 762 936 917 578 328 36 11 2 20 0 0 0 0 0 0 0 0 0 0 0 0 0 0 0 33 503 605 806 1205 1299 1174 1232
1135 854 326 576 973 1109 799 834 1059 791 797 776 576 420 398 264 9 0 0 0 0 0 0 0 0 0 0 0 0 1 2 28 0 0 0 13 252 502 559 1158 1245 1253 1222
509 42 221 305 749 660 658 1145 1072 755 805 580 264 190 0 0 0 15 0 0 0 0 0 0 0 0 0 0 0 0 0 0 0 5 10 14 40 243 571 618 825 816 975
0 0 0 30 171 275 197 622 566 636 530 168 17 0 0 0 0 0 0 0 0 0 0 0 0 1 2 1 3 1 0 0 0 1 8 0 9 65 162 343 538 688 844
0 0 0 0 8 29 3 2 5 8 4 0 0 0 0 0 0 0 0 0 0 0 0 0 0 0 0 0 0 1 5 1 1 5 7 5 2 7 52 40 162 358 504
0 0 0 0 0 0 0 0 0 0 0 0 0 0 0 0 0 0 0 0 0 0 0 0 0 0 0 0 0 0 0 0 0 0 0 0 0 15 19 26 158 113 166
0 0 0 0 0 0 0 0 0 0 0 0 0 0 0 0 0 0 0 0 0 0 0 0 0 0 0 0 0 0 0 0 0 0 0 0 0 0 19 55 77 170 209
0 0 0 0 0 0 0 0 0 0 0 0 0 0 0 0 0 0 0 0 0 0 0 0 0 0 0 0 0 0 0 0 0 0 0 0 0 0 30 33 42 59 90
0 0 0 0 0 0 0 0 0 0 0 0 0 0 0 0 0 0 0 0 0 0 0 0 0 0 0 0 0 0 0 0 0 0 0 0 0 0 34 72 44 36 48
0 0 0 0 0 0 0 0 0 0 0 0 0 0 0 0 0 0 0 0 0 0 0 0 0 0 0 0 0 0 0 0 0 0 0 0 0 1 26 38 142 96 119
0 0 0 0 0 0 0 0 0 0 0 0 0 0 0 0 0 0 0 0 0 0 0 0 0 0 0 0 0 0 0 0 0 0 0 0 0 0 0 0 0 84 77
0 0 0 0 0 0 0 0 0 0 0 0 0 0 0 0 0 0 0 0 0 0 0 0 0 0 0 0 0 0 0 0 0 0 0 0 0 0 0 0 1 14 97
0 0 0 0 0 0 0 0 0 0 0 0 0 0 0 0 0 0 0 0 0 0 0 0 0 0 0 0 0 0 0 0 0 0 0 0 0 0 0 0 0 6 32
0 0 0 0 0 0 0 0 0 0 0 0 0 0 0 0 0 0 0 0 0 0 0 0 0 0 0 0 0 0 0 0 0 0 0 0 0 0 0 0 0 0 2
0 0 0 0 0 0 0 1 0 0 0 0 0 2 21 25 23 0 0 0 0 0 0 0 0 0 0 0 0 0 0 0 0 0 0 0 0 0 0 0 0 0 0

GFSSE_con_mucape_003.txt.gz
CAPE
67 448 1021 1418 1612 1711 1954 2157 2006 2029 2163 2064 1707 1606 1410 1275 1178 1253 1162 1188 1240 1485 772 742 767 887 1191 994 947 1178 1102 1144 1481 1879 1577 1258 753 969 1044 1218 937 1099 1439
103 496 941 1337 1792 1983 1958 2226 2298 2205 2323 1992 1879 1598 1403 1265 1269 1181 1330 644 576 652 439 614 826 1009 1285 1187 1042 1056 1124 1111 1193 1439 1925 1927 1391 1343 1073 1187 915 1214 1500
219 500 741 1232 1757 2015 2096 2354 2645 2730 2363 2013 1966 1761 1574 1369 1354 1142 1122 494 315 322 386 910 943 1275 1241 868 909 925 898 972 1348 1511 1725 1165 1110 1338 1279 1503 905 1504 1420
399 600 829 1376 1672 1839 1932 2121 2459 2618 2493 2289 2148 2024 1822 1668 1499 1472 869 710 742 648 591 273 497 1020 1036 1200 1086 891 993 957 938 1375 1379 1094 1042 1099 901 1282 1178 1132 1321
665 558 840 1380 1582 1763 1920 1978 2101 2307 2572 2375 2280 2185 1981 1760 1596 1414 802 488 398 272 319 435 583 390 303 247 232 257 632 591 668 877 785 1052 1000 1244 1119 1384 1505 1621 1505
597 671 801 1256 1627 1824 1751 1765 1830 1987 2195 2422 2247 1995 1821 1636 1265 1243 585 411 486 468 446 502 566 1022 648 286 316 502 406 557 508 261 510 778 954 947 1392 1506 1478 1632 1441
758 893 853 1077 1407 1789 1635 1662 1849 1940 1983 2190 2338 2113 1857 1562 1164 484 712 815 693 752 728 892 1269 872 703 394 351 296 261 173 217 299 479 640 649 710 1381 1550 1446 1430 1383
854 1029 1019 1206 1220 1382 1620 1678 1654 1809 1878 1799 1830 1940 1708 1285 1091 905 722 819 827 675 394 380 309 257 183 82 234 292 191 43 190 486 604 580 696 1077 1141 1633 1318 1511 1431
1097 1091 1038 948 937 1081 990 1071 1239 1532 1746 1654 1457 1404 1313 1169 1147 781 734 679 564 694 759 543 478 254 224 512 233 230 174 299 264 316 362 500 538 882 965 1183 1327 1274 1373
1423 1318 1326 1221 1095 696 568 775 797 1135 1400 1385 1121 884 641 765 751 402 237 274 182 150 30 46 123 254 332 276 224 130 114 108 58 69 87 181 479 878 1064 1545 1490 1102 1090
1741 1626 1470 1420 1320 996 573 398 732 904 1172 1326 956 686 389 158 51 10 21 87 124 23 0 0 0 36 84 53 13 34 97 99 14 0 0 9 155 787 956 1428 1280 1136 1105
1961 1772 1637 1624 1506 1266 877 733 635 573 630 981 1087 511 353 119 20 0 0 5 0 0 0 0 0 0 0 0 0 0 0 0 0 1 0 9 41 305 695 945 996 1123 948
1762 1886 1892 1772 1567 1175 1013 908 802 654 552 523 531 592 287 199 0 0 0 0 0 0 0 0 0 0 0 0 0 0 0 2 9 139 8 0 0 56 393 850 960 1023 904
1128 834 248 334 673 648 700 613 838 713 538 535 433 210 153 18 0 0 0 0 0 0 0 0 0 0 0 0 0 0 0 0 0 0 0 0 0 0 42 313 715 877 850
586 69 41 68 460 216 347 752 883 643 605 535 167 32 0 0 0 0 0 0 0 0 0 0 0 0 0 0 0 0 0 0 0 0 0 0 0 10 83 122 396 552 660
140 0 0 0 36 82 34 60 93 252 378 316 14 0 0 0 0 0 0 0 0 0 0 0 0 0 0 0 0 0 0 0 0 0 0 0 0 9 7 53 107 126 282
0 0 0 0 0 0 0 0 0 0 0 0 0 0 0 0 0 0 0 0 0 0 0 0 0 0 0 0 0 0 0 0 0 0 0 0 0 0 4 4 51 119 106
0 0 0 0 0 0 0 0 0 0 0 0 0 0 0 0 0 0 0 0 0 0 0 0 0 0 0 0 0 0 0 0 0 0 0 0 0 0 0 9 36 58 131
0 0 0 0 0 0 0 0 0 0 0 0 0 0 0 0 0 0 0 0 0 0 0 0 0 0 0 0 0 0 0 0 0 0 0 0 0 0 0 16 80 68 88
0 0 0 0 0 0 0 0 0 0 0 0 0 0 0 0 0 0 0 0 0 0 0 0 0 0 0 0 0 0 0 0 0 0 0 0 0 0 0 0 20 54 70
0 0 0 0 0 0 0 0 0 0 0 0 0 0 0 0 0 0 0 0 0 0 0 0 0 0 0 0 0 0 0 0 0 0 0 0 0 0 0 0 0 0 2
0 0 0 0 0 0 0 0 0 0 0 0 0 0 0 0 0 0 0 0 0 0 0 0 0 0 0 0 0 0 0 0 0 0 0 0 0 0 0 0 0 0 0
0 0 0 0 0 0 0 0 0 0 0 0 0 0 0 0 0 0 0 0 0 0 0 0 0 0 0 0 0 0 0 0 0 0 0 0 0 0 0 0 0 0 0
0 0 0 0 0 0 0 0 0 0 0 0 0 0 0 0 0 1 1 1 6 1 0 0 0 0 0 0 0 0 0 0 0 0 0 0 0 0 0 0 0 0 0
0 0 0 0 0 0 0 0 0 0 0 0 0 0 0 0 0 0 5 24 14 1 0 0 0 0 0 0 0 0 0 0 0 0 0 0 0 0 0 0 0 0 0
0 0 0 0 0 0 0 0 0 0 0 0 0 0 0 0 0 0 2 20 12 0 0 0 1 1 0 0 0 0 0 1 0 0 0 0 0 0 0 0 0 0 0

GFSSE_con_mucape_006.txt.gz
CAPE
95 526 923 1314 1554 1605 1548 1687 1700 1930 2056 1977 1808 1679 1773 1760 1586 1719 1696 1386 1749 1245 904 944 1021 1143 1282 1043 1028 1381 1351 1712 1603 1550 1549 1156 912 1136 1292 1388 1151 1070 1500
146 619 905 1367 1660 1915 1930 1892 1796 2024 2274 1949 1898 1798 1708 1614 1581 1745 981 953 823 630 570 989 1089 1168 1494 1402 1173 1104 1220 1325 1706 1927 1945 1542 1243 1232 1176 1490 1193 1079 1163
303 570 852 1328 1609 1922 2226 2269 2204 2183 2171 2134 1985 1757 1596 1346 1351 1490 1045 677 425 311 398 775 1068 1429 1654 1435 1379 1210 1010 1141 1363 1476 1880 1168 1250 1645 1264 1571 1457 1704 1399
333 503 900 1282 1532 1798 2028 2383 2537 2594 2362 2290 2168 2021 1857 1701 1653 1511 1106 852 659 748 822 690 576 1243 1347 1160 1001 1062 1123 989 1011 1343 1423 1034 985 1446 1223 1528 1407 1399 1397
427 551 1062 1242 1409 1711 1799 1931 2252 2557 2639 2563 2396 2267 2076 1844 1663 1633 988 581 450 538 451 606 872 843 975 686 639 571 675 878 783 560 788 1015 1017 1266 1062 1477 1470 1704 1591
351 472 1066 1211 1420 1700 1717 1629 1825 2078 2213 2199 2163 2140 1960 1688 1304 1221 865 590 727 765 793 887 888 1139 1238 720 481 440 673 351 229 198 256 649 1013 1008 1450 1446 1189 1536 1481
390 473 848 1167 1466 1749 1638 1566 1771 1843 1989 2178 2241 2110 1922 1628 1224 470 471 850 777 993 868 711 748 591 769 504 239 340 312 167 134 186 282 399 580 1001 1104 1610 1349 1268 1438
539 624 647 979 1209 1519 1583 1492 1506 1589 1631 1673 1847 1992 1676 1316 1178 1040 950 945 865 940 933 838 736 401 265 255 512 194 98 126 285 275 392 298 386 881 1160 1514 1396 1079 1243
658 658 586 660 746 909 978 1046 1174 1400 1498 1357 1237 1364 1248 1129 972 687 586 534 404 370 154 175 224 397 438 324 222 168 157 175 137 97 109 147 348 731 976 1244 1472 1029 1294
772 809 849 689 591 325 424 639 806 1060 1309 1154 884 643 528 646 535 305 59 201 146 99 53 24 10 80 207 234 183 49 68 72 56 75 5 0 58 335 843 890 1356 1202 1240
1137 1108 1101 949 887 521 234 266 556 844 1081 1071 768 497 201 34 3 0 2 25 83 9 0 0 0 0 2 31 16 13 22 25 28 43 7 14 29 177 510 854 1199 1216 1126
1373 1356 1244 1189 1080 775 534 332 212 265 558 906 748 348 104 62 0 0 0 0 0 0 0 0 0 0 0 0 0 0 0 0 0 0 0 0 0 27 199 501 725 849 748
1622 1606 1357 1314 1271 1037 868 434 412 349 306 306 567 397 175 113 14 0 0 0 0 0 0 0 0 0 0 0 0 0 0 0 0 0 0 0 5 1 32 104 308 482 636
1497 1556 1590 1440 1345 1049 779 684 553 465 359 297 289 216 152 65 5 0 0 0 0 0 0 0 0 0 0 0 0 0 0 0 0 0 0 0 0 0 3 78 130 282 476
1079 1321 776 429 278 342 343 376 385 567 555 396 350 266 36 15 0 0 0 0 0 0 0 0 0 0 0 0 0 0 0 0 0 0 0 0 0 0 0 0 87 190 212
551 485 0 3 111 85 13 101 225 323 331 295 402 142 0 0 0 0 0 0 0 0 0 0 0 0 0 0 0 0 0 0 0 0 0 0 0 0 0 0 0 13 238
214 204 0 0 0 0 0 0 0 0 0 9 27 0 0 0 0 0 0 0 0 0 0 0 0 0 0 0 0 0 0 0 0 0 0 0 0 0 0 0 0 0 6
101 18 0 0 0 0 0 0 0 0 0 0 0 0 0 0 0 0 0 0 0 0 0 0 0 0 0 0 0 0 0 0 0 0 0 0 0 0 0 0 0 9 5
3 0 0 0 0 0 0 0 0 0 0 0 0 0 0 0 0 0 0 0 0 0 0 0 0 0 0 0 0 0 0 0 0 0 0 0 0 0 0 0 0 10 0
0 0 0 0 0 0 0 0 0 0 0 0 0 0 0 0 0 0 0 0 0 0 0 0 0 0 0 0 0 0 0 0 0 0 0 0 0 0 0 0 0 0 0
0 0 0 0 0 0 0 0 0 0 0 0 0 0 0 0 0 0 0 0 0 0 0 0 0 0 0 0 0 0 0 0 0 0 0 0 0 0 0 0 0 0 0
0 0 0 0 0 0 0 0 0 0 0 0 0 0 0 0 0 0 0 0 0 0 0 0 0 0 0 0 0 0 0 0 0 0 0 0 0 0 0 0 0 0 0
0 0 0 0 0 0 0 0 0 0 0 0 0 0 0 0 0 0 0 0 0 0 0 0 0 0 0 0 0 0 0 0 0 0 0 0 0 0 0 0 0 0 0
0 0 0 0 0 0 0 0 0 0 0 2 0 0 0 0 0 0 0 0 0 0 0 2 0 2 1 0 0 0 0 0 0 0 0 0 0 0 0 0 0 0 0
0 0 0 0 0 0 0 0 0 1 7 0 0 0 0 0 0 0 0 0 0 0 0 11 5 3 1 0 0 0 0 0 0 0 0 0 0 0 0 0 0 0 0
0 0 0 0 0 0 0 1 8 1 0 0 0 0 0 0 0 0 0 0 0 0 0 0 1 1 1 6 0 0 0 0 0 0 0 0 0 0 0 0 0 0 0

GFSSE_con_mucape_009.txt.gz
CAPE
176 542 769 1124 1215 1422 1524 1489 1541 1520 1623 1788 1716 1879 1858 1775 1783 1357 988 910 980 790 713 968 1095 1176 1472 1277 1183 1151 1198 1697 1280 1275 1408 1286 1283 1504 1510 1861 1778 1210 1651
335 683 802 1229 1459 1587 1513 1531 1495 1817 1972 1932 1879 1818 1806 1783 1551 1227 1073 756 679 656 611 769 946 1427 1573 1578 1348 1309 1416 1397 1700 1669 1586 1329 1154 1257 1453 1543 1281 1358 1774
478 707 986 1159 1489 1708 1869 1845 1813 2148 2044 1948 1872 1715 1556 1559 1455 1423 1154 1095 865 508 549 725 690 1485 1864 1573 1383 1312 1399 1434 1369 1518 1719 883 692 1560 1441 1535 1516 1636 1728
354 657 991 1154 1426 1753 2092 2152 2293 2295 2213 2136 1982 1806 1665 1609 1645 1448 1335 762 653 619 648 809 1089 936 1040 785 712 642 744 1024 1098 1167 988 811 874 1703 1548 1572 1525 1511 1495
372 665 1054 1125 1275 1550 1841 2172 2433 2555 2521 2471 2259 2126 1961 1839 1677 1596 1035 912 765 825 869 958 957 1170 1199 850 513 568 810 716 678 615 1006 982 1034 1270 1347 1711 1637 1742 1693
345 695 911 1024 1245 1423 1544 1671 1867 1971 1999 2036 2101 2029 1853 1616 1350 1051 868 803 869 974 1130 1025 1219 1078 1057 819 439 443 449 417 196 475 718 828 1052 1138 1411 1622 1513 1522 1384
286 543 830 904 1148 1401 1354 1413 1545 1691 1844 1971 1978 1852 1741 1400 890 531 417 735 893 1023 995 1016 800 515 397 347 358 201 210 293 318 265 341 782 926 901 1096 1164 1339 1407 1151
232 461 689 946 1139 1254 1311 1307 1311 1393 1420 1482 1615 1737 1499 1254 1079 946 907 761 662 454 381 494 593 641 632 560 424 315 303 364 525 675 694 666 607 821 799 1198 1272 1268 1170
456 462 599 645 732 858 812 840 973 1142 1102 1032 1083 1105 961 945 697 484 409 405 268 184 139 132 148 117 204 230 187 143 144 127 388 309 177 276 164 466 760 749 1116 1077 974
675 593 671 688 532 538 620 452 656 878 1019 823 652 404 322 393 235 137 0 45 84 57 23 6 0 0 1 39 37 12 3 15 56 60 58 50 62 282 482 715 748 1291 1148
743 768 726 668 454 295 292 382 402 644 877 806 579 256 146 228 92 4 0 0 3 0 0 0 0 0 0 0 0 0 0 0 0 0 0 9 0 62 226 445 527 880 1351
1128 1119 850 824 747 403 153 337 492 428 763 1041 934 644 329 179 30 2 0 0 0 0 0 0 0 0 0 0 0 0 0 0 0 0 0 0 0 7 56 128 235 657 792
1402 1367 1007 1058 996 681 403 353 347 308 465 627 924 796 338 116 63 27 0 0 0 0 0 0 0 0 0 0 0 0 0 0 0 0 0 0 0 1 14 62 155 238 560
1416 1622 1567 1210 1093 1124 883 736 483 411 384 505 490 515 518 324 110 3 0 0 0 0 0 0 0 0 0 0 0 0 0 0 0 0 0 0 0 0 0 0 0 127 256
1304 1355 1580 1391 1016 579 248 412 540 556 554 573 495 347 216 183 131 0 0 0 0 0 0 0 0 0 0 0 0 0 0 0 0 0 0 0 0 0 0 0 0 0 53
977 1072 1248 695 122 58 14 98 197 298 411 365 424 368 258 90 68 0 0 0 0 0 0 0 0 0 0 0 0 0 0 0 0 0 0 0 0 0 0 0 0 0 0
375 717 800 6 0 8 0 0 0 0 0 20 125 94 65 33 30 17 25 29 32 18 0 0 0 0 0 0 0 0 0 0 0 0 0 0 0 0 0 0 0 0 0
11 107 355 0 0 0 0 0 0 0 0 0 0 0 0 0 5 27 22 26 39 44 11 0 0 0 0 0 0 0 0 0 0 0 0 0 0 0 0 0 0 0 0
0 85 112 0 0 0 0 0 0 0 0 0 0 0 0 0 0 16 6 0 0 0 0 0 0 0 0 0 0 0 0 0 0 0 0 0 0 0 0 0 0 0 0
4 29 0 0 0 0 0 0 0 0 0 0 0 0 0 0 0 0 0 0 0 0 0 0 0 0 0 0 0 0 0 0 0 0 0 0 0 0 0 0 0 0 0
0 0 0 0 0 0 0 0 0 0 0 0 0 0 0 0 0 0 0 0 0 0 0 0 0 0 0 0 0 0 0 0 0 0 0 0 0 0 0 0 0 0 0
0 0 0 0 0 0 0 0 0 0 0 0 0 0 0 0 0 0 0 0 0 0 0 0 0 0 0 0 0 0 0 0 0 0 0 0 0 0 0 0 0 0 0
0 0 0 0 0 0 0 0 0 0 2 5 3 1 0 0 0 0 0 0 0 0 0 0 0 0 0 0 0 0 0 0 0 0 0 0 0 0 0 0 0 0 0
0 0 0 0 0 0 0 0 0 0 0 0 0 0 0 0 0 0 0 0 0 0 0 0 0 0 2 4 0 0 0 0 0 0 0 0 0 0 0 0 0 0 0
0 0 0 0 0 0 0 0 1 2 3 4 0 0 0 0 0 0 0 0 0 0 0 0 0 0 0 1 8 2 1 0 0 0 0 0 0 0 0 0 0 0 0
0 0 0 0 0 1 0 3 8 14 1 0 0 0 0 0 0 0 0 0 0 0 0 0 0 0 0 0 0 4 13 16 16 0 0 0 0 0 0 0 0 0 0

GFSSE_con_mucape_012.txt.gz
CAPE
229 710 700 1056 1284 1385 1242 1206 1271 1360 1656 1665 1765 2018 2006 1707 1409 1210 1082 866 857 749 790 886 968 1261 1412 1527 1412 1187 1316 1539 1399 1239 1402 1403 1458 1546 1683 1925 1648 1349 1495
341 795 754 1107 1483 1516 1444 1367 1400 1561 1720 1677 1707 1700 1969 1559 1318 1196 1118 940 830 814 821 867 833 1331 1673 1757 1600 1456 1437 1618 1698 1726 1544 1335 1053 1419 1607 1641 1524 1525 1711
378 838 1062 1099 1503 1673 1731 1687 1788 1781 1801 1876 1798 1532 1472 1605 1479 1298 1209 1003 878 737 715 914 1048 1627 1480 1077 904 987 1050 1092 1326 1403 1564 800 627 1524 1586 1586 1515 1607 1803
385 784 1083 1038 1465 1952 1909 2006 2143 2038 1965 1845 1747 1655 1589 1618 1568 1516 1004 734 741 827 864 914 1206 1376 1324 1002 662 718 844 769 950 909 1079 981 602 1588 1771 1700 1604 1587 1681
289 583 949 996 1270 1651 1840 2010 2170 2174 2150 2071 2067 2009 1887 1689 1439 1232 891 995 968 1092 1239 1320 1488 1473 1200 901 655 611 828 659 603 595 1202 1153 991 1185 1415 1618 1694 1545 1544
107 342 674 871 1109 1304 1348 1552 1685 1751 1781 1867 1912 1872 1727 1476 1154 521 608 858 900 1113 1049 1061 936 691 636 522 430 317 463 552 396 866 1125 1126 1021 1089 1112 1525 1546 1578 1480
131 300 366 730 919 1151 1128 1182 1325 1483 1592 1694 1707 1593 1536 1042 850 837 705 896 962 973 846 925 765 554 457 747 663 573 422 346 640 889 857 993 1317 1108 1043 1334 1643 1531 1537
173 330 295 555 862 1081 1097 1060 1153 1145 1133 1239 1430 1501 1261 1063 875 811 688 573 486 332 366 420 677 635 424 284 263 249 292 332 754 1074 1074 1032 661 841 997 1120 1427 1274 1506
111 205 405 441 602 697 618 714 854 957 875 810 879 860 792 739 475 334 272 247 179 115 62 48 57 39 16 40 38 32 18 83 886 847 705 704 341 527 847 807 745 995 1210
420 405 638 799 663 696 619 303 484 661 769 597 462 245 213 311 112 13 0 5 21 2 0 0 0 0 0 0 0 0 0 0 238 522 550 338 59 297 453 642 463 299 608
767 996 1096 1049 953 764 507 462 162 373 667 555 470 167 277 458 426 99 0 0 0 0 0 0 0 0 0 0 0 0 0 0 8 12 62 11 0 92 219 336 421 352 429
1124 1309 1472 1559 1379 1040 227 695 709 621 692 961 1047 1167 830 852 641 53 0 0 0 0 0 0 0 0 0 0 0 0 0 0 0 0 6 0 0 28 122 171 236 317 406
1034 1393 1550 1892 1819 1431 562 536 409 401 539 769 1329 1438 1038 975 734 522 382 39 2 0 0 0 0 0 0 0 0 0 0 0 0 0 0 0 0 0 0 0 28 221 348
834 1398 1770 1906 2023 1883 951 508 442 493 486 654 759 1419 1261 932 677 572 217 12 0 0 0 0 0 0 0 0 0 0 0 0 0 0 0 0 0 0 0 0 0 0 157
1282 1694 2094 2236 2192 1469 1160 506 780 859 526 790 777 669 1192 751 501 286 54 0 0 0 0 0 0 0 0 0 0 0 0 0 0 0 0 0 0 0 0 0 0 0 0
1363 1616 2143 2386 2123 729 434 614 454 473 384 485 229 196 720 824 229 60 3 0 0 0 0 0 0 0 0 0 0 0 0 0 0 0 0 0 0 0 0 0 0 0 0
1022 1169 1836 2001 1026 516 279 138 27 8 33 7 13 77 224 322 96 87 29 1 0 0 0 0 0 0 0 0 0 0 0 0 0 0 0 0 0 0 0 0 0 0 0
241 562 1163 895 398 325 67 35 8 4 15 10 12 23 38 56 79 83 43 28 25 31 0 0 0 0 0 0 0 0 0 0 0 0 0 0 0 0 0 0 0 0 0
1 132 704 709 195 75 38 27 33 47 51 11 14 3 1 19 31 64 28 23 59 46 4 0 0 0 0 0 0 0 0 0 0 0 0 0 0 0 0 0 0 0 0
3 142 461 244 54 29 3 0 0 0 0 0 0 0 0 0 0 0 0 6 29 37 20 2 7 0 0 0 0 0 0 0 0 0 0 0 0 0 0 0 0 0 0
0 17 23 2 0 0 0 0 0 0 0 0 0 0 0 0 0 0 0 0 2 2 15 31 24 19 12 5 0 0 0 0 0 0 0 0 0 0 0 0 0 0 0
0 0 0 0 0 0 0 0 0 0 0 0 0 0 0 0 0 0 0 0 0 0 0 16 35 49 37 16 3 0 2 6 16 0 0 0 0 0 0 0 0 0 0
0 0 0 0 0 0 0 0 0 0 1 4 6 7 4 0 0 0 0 0 0 0 0 0 0 13 34 60 118 21 14 38 72 55 5 0 0 0 0 0 0 0 0
0 0 0 0 0 0 0 0 0 0 5 4 3 3 4 1 0 0 0 0 0 0 0 0 0 3 14 21 72 159 102 43 62 101 13 6 0 0 0 0 0 0 0
0 0 0 0 0 0 0 0 0 2 6 9 6 0 0 0 0 0 0 0 0 0 0 0 0 3 12 30 32 47 30 50 44 15 76 15 2 0 0 0 0 0 0
0 0 0 0 0 0 0 0 8 7 0 0 0 0 0 0 0 0 0 0 0 0 1 2 6 12 9 7 8 8 3 3 1 1 18 20 72 2 3 0 0 0 0

GFSSE_con_mucape_015.txt.gz
CAPE
501 623 857 1045 1122 1268 1095 1045 1138 1484 1666 1745 1770 1660 1495 1338 1234 1110 1030 821 855 936 971 1051 988 1263 1478 1773 1643 1516 1499 1560 1752 1439 1274 1057 1303 1510 1691 1782 1655 1065 1204
559 774 869 1185 1306 1434 1281 1284 1460 1464 1629 1569 1532 1594 1451 1240 1137 1112 1021 935 907 947 943 1047 1030 1905 1880 1470 1401 1363 1407 1459 1616 1848 1686 1277 1194 1449 1630 1587 1805 1074 958
722 772 972 1237 1565 1446 1409 1422 1595 1540 1579 1594 1437 1431 1529 1386 1347 1274 1021 867 883 881 897 1016 1308 1499 1396 1135 889 872 1038 931 1163 1240 1533 477 1014 1585 1716 1557 1468 1533 1259
663 870 1067 1128 1674 1828 1887 1896 1861 1739 1583 1495 1497 1498 1507 1485 1510 1198 800 807 925 1055 1242 1275 1200 1445 1168 915 765 789 948 913 892 1108 811 945 898 1914 1772 1815 1603 1638 1626
395 736 900 1001 1355 1727 1862 1958 2002 1904 1815 1840 1839 1778 1690 1506 1317 956 772 873 987 1156 1178 1204 1289 1280 1234 1029 725 555 646 824 848 783 965 1438 1297 1618 1468 1587 1673 1879 1932
177 418 634 916 1141 1330 1354 1450 1536 1523 1642 1730 1746 1685 1593 1337 692 461 697 848 1026 1068 1048 1000 769 546 416 414 513 574 400 528 812 584 944 1440 1125 1553 1216 1365 1494 1679 1643
11 86 406 689 949 955 891 997 1142 1234 1352 1438 1448 1466 1206 902 872 786 818 815 619 483 552 714 839 812 781 636 563 560 656 652 472 764 845 961 1130 1352 1347 1464 1498 1675 1715
36 90 70 438 739 839 751 815 861 846 894 1035 1264 1241 994 750 605 539 492 380 310 219 203 261 340 259 174 93 89 70 65 202 708 878 955 804 951 963 1210 1266 1184 1124 1263
24 92 145 195 351 592 578 659 728 675 611 577 588 595 622 454 265 162 135 126 103 60 25 5 7 3 0 0 0 0 0 0 156 547 488 549 545 663 759 939 893 823 745
66 310 402 413 354 544 643 415 515 582 566 404 288 145 179 324 157 30 5 15 1 0 0 0 0 0 0 0 0 0 0 0 24 61 257 347 216 327 501 627 717 605 350
345 616 562 572 409 241 85 325 104 407 586 482 441 350 393 524 366 257 0 0 0 0 0 0 0 0 0 0 0 0 0 0 0 0 52 15 35 147 327 320 380 535 487
534 622 812 1071 725 353 2 213 261 170 430 511 633 827 582 650 514 188 24 5 0 0 0 0 0 0 0 0 0 0 0 0 0 0 5 0 0 0 45 157 242 344 380
541 379 707 1768 1324 610 221 51 117 136 211 363 682 882 622 681 565 380 237 118 81 4 13 2 5 6 1 0 0 0 0 0 0 0 0 0 0 0 0 0 0 47 273
281 396 657 1683 1855 1119 354 81 119 121 284 235 536 519 439 326 295 214 21 2 4 4 1 4 2 5 4 0 0 0 0 0 0 0 0 0 0 0 0 0 0 0 28
271 446 648 1351 2323 1024 537 133 206 300 296 441 290 192 219 182 135 7 0 0 0 2 4 2 0 0 0 0 0 0 0 0 0 0 0 0 0 0 0 0 0 0 0
412 519 695 1240 2282 998 107 166 215 270 224 179 27 29 58 141 127 61 37 16 1 0 0 0 0 0 0 0 0 0 0 0 0 0 0 0 0 0 0 0 0 0 0
366 465 909 1516 2047 788 161 79 34 4 1 0 0 10 29 71 74 92 57 65 47 66 114 36 6 7 6 2 0 0 0 0 0 0 0 0 0 0 0 0 0 0 0
218 209 497 1439 1682 722 41 27 15 4 5 14 19 20 24 50 52 82 45 59 117 127 44 62 6 6 9 7 7 0 0 0 0 0 0 0 0 0 0 0 0 0 0
13 20 297 1397 1161 363 71 39 50 46 66 35 36 11 0 4 0 23 31 62 197 106 175 126 91 96 43 22 7 14 5 0 0 0 0 0 0 0 0 0 0 0 0
3 129 493 1135 557 154 56 29 2 0 0 2 0 0 0 1 0 0 2 58 60 7 44 86 225 119 199 147 15 13 63 6 1 10 1 0 0 1 0 0 0 0 0
82 286 460 212 102 27 0 0 0 0 1 1 10 4 3 0 0 0 0 0 1 0 21 95 113 149 125 240 229 192 137 102 68 7 4 3 3 4 11 0 3 0 0
0 0 0 0 0 0 0 0 0 0 1 3 16 0 0 0 0 1 1 4 0 0 5 37 90 81 118 200 261 272 212 114 161 132 69 20 16 1 9 24 21 0 0
0 0 0 0 0 0 0 0 0 0 0 0 0 0 0 0 0 0 0 0 0 0 0 21 32 63 47 72 257 285 171 120 206 236 338 183 177 80 5 1 14 0 0
0 0 0 0 0 0 0 0 0 0 0 0 1 4 0 0 0 0 0 0 2 1 6 15 11 93 107 58 108 60 282 262 170 159 226 247 98 93 197 51 18 0 0
0 0 0 0 0 0 0 0 0 1 0 0 0 0 0 0 0 0 0 0 0 0 3 9 8 19 21 27 29 28 8 6 17 19 39 152 66 24 9 83 36 5 0
0 0 0 0 0 1 5 5 0 0 0 0 0 0 0 0 0 0 0 0 6 10 22 23 16 5 9 8 0 0 0 1 2 3 5 16 36 75 33 0 4 40 11

GFSSE_con_mucape_021.txt.gz
CAPE
396 652 976 1047 972 967 1067 1136 1180 1308 1409 1377 1151 1038 1083 1045 1100 1119 1157 1211 1226 1048 1098 1250 1568 1507 1441 1270 1144 1161 1209 1214 1397 1450 1396 1496 1157 1432 1739 1366 1784 1089 1391
633 813 942 1013 1051 1154 1295 1281 1263 1392 1395 1148 1073 1170 1189 1223 1007 815 863 1004 1111 1128 1153 1259 1423 1381 1182 984 883 870 992 1305 1330 1341 1171 1163 898 1573 1501 1538 813 1339 1565
608 852 940 961 1185 1364 1338 1379 1409 1394 1241 1224 1164 1360 1328 951 777 726 771 951 972 1018 1121 1193 1285 1331 1167 1052 872 737 730 900 1198 1148 1034 269 950 1262 988 932 1489 1249 1167
746 872 937 1045 1257 1429 1360 1314 1300 1322 1278 1433 1328 1155 1102 949 720 627 672 844 811 833 912 795 750 638 606 544 547 580 616 673 881 890 246 372 798 1129 700 428 1132 1906 2131
740 868 940 1051 1202 1367 1406 1449 1472 1530 1531 1517 1520 1249 896 551 467 500 671 932 650 615 556 522 446 422 490 535 545 564 613 651 802 394 188 696 1035 665 248 1 1062 1203 1416
661 778 818 841 993 1201 1277 1272 1305 1349 1332 1345 1312 893 615 520 535 612 515 325 300 293 385 450 479 387 243 153 98 79 147 243 372 80 434 731 839 693 420 687 947 1201 1422
266 353 488 619 801 968 1009 924 1098 1132 1108 1173 1069 966 621 548 437 332 264 165 102 76 85 88 77 74 43 20 8 14 6 4 0 374 490 740 1008 1463 1271 1143 814 914 1186
109 119 285 568 617 681 751 717 702 768 939 985 942 855 459 446 441 243 148 66 19 2 0 0 0 0 0 0 1 0 0 0 0 192 286 720 1526 1367 1246 1070 1005 897 880
0 0 87 184 313 344 355 359 368 423 532 572 543 534 359 301 262 286 139 31 4 0 0 0 0 0 0 0 0 0 0 0 0 2 155 387 1248 1146 1013 1021 949 846 794
0 17 29 19 165 25 58 185 172 176 188 131 168 246 194 181 129 107 98 60 1 0 0 0 0 0 0 0 0 0 0 0 0 0 12 113 729 671 647 565 505 602 734
71 89 136 198 195 57 0 106 248 259 225 170 171 265 172 185 122 45 42 45 25 0 0 0 0 0 0 0 0 0 0 0 0 0 0 15 29 73 172 297 330 353 473
167 185 193 105 256 158 1 34 22 122 192 324 363 306 324 163 221 102 57 13 4 0 0 0 0 0 0 0 0 0 0 0 0 0 0 0 0 0 0 0 28 108 270
240 302 262 110 22 49 46 60 118 129 279 475 430 183 57 197 51 2 43 23 0 3 0 0 0 0 0 0 0 0 0 0 0 0 0 0 0 0 0 0 0 0 0
303 500 446 231 113 187 14 0 11 96 225 418 249 129 27 13 0 0 0 0 0 0 0 0 0 0 0 0 0 0 0 0 0 0 0 0 0 0 0 0 0 0 0
268 613 810 560 378 317 20 20 42 204 101 112 112 24 8 31 0 0 2 0 0 0 0 0 0 0 0 0 0 0 0 0 0 0 0 0 0 0 0 0 0 0 0
186 800 1018 1021 948 518 155 79 142 187 82 129 6 0 11 0 18 10 0 5 0 0 12 0 0 0 0 0 0 0 0 0 0 0 0 0 0 0 0 0 0 0 0
85 841 1026 529 59 575 302 38 44 180 25 1 0 0 0 0 0 0 7 14 6 12 1 0 0 0 0 0 0 0 0 0 0 0 0 0 0 0 0 0 0 0 0
430 746 861 621 361 504 147 76 20 8 0 0 0 0 0 0 0 0 0 0 0 0 0 0 0 0 0 0 0 0 0 0 0 0 0 0 0 0 0 0 0 35 0
62 597 639 979 634 443 78 70 66 18 0 2 7 7 22 7 0 0 0 0 0 0 0 0 0 0 0 0 0 0 0 0 0 0 0 0 0 0 0 0 0 8 1
242 700 850 612 476 124 107 79 57 22 6 0 0 0 0 0 0 0 0 0 0 0 0 0 0 0 0 0 0 0 0 0 0 0 0 1 4 0 0 0 0 0 0
217 337 572 574 341 154 91 39 21 5 0 0 0 0 0 0 0 0 0 0 0 0 0 0 0 0 0 0 0 0 0 0 0 0 0 10 34 62 43 1 0 0 0
71 233 346 258 106 2 0 0 0 0 0 0 0 0 0 0 0 0 0 0 0 0 0 0 0 0 0 0 0 0 0 0 0 0 0 0 0 16 59 55 22 20 6
20 0 0 0 0 0 0 0 0 0 0 0 0 2 1 0 0 0 0 0 0 0 0 0 0 0 0 0 0 1 3 0 0 0 0 0 0 0 37 35 23 21 18
0 0 0 0 0 0 0 0 0 0 0 0 7 1 0 0 0 0 0 0 0 0 0 0 0 6 17 17 11 12 20 17 0 0 0 0 0 0 0 2 12 50 58
0 0 0 0 0 0 0 0 0 0 0 0 0 0 0 0 0 0 0 0 0 0 0 4 10 6 9 5 2 1 2 0 0 0 0 0 0 0 0 0 0 0 69
0 0 0 0 0 0 0 0 0 0 0 0 0 0 0 0 0 0 0 0 0 0 0 0 0 8 12 12 20 6 5 0 0 0 0 0 0 0 0 0 0 0 11

GFSSE_con_mucape_024.txt.gz
CAPE
432 721 729 870 969 990 1000 1056 1114 1171 1233 1016 879 844 885 827 823 973 1037 1205 1214 991 1128 1203 1170 1113 1001 901 884 938 1046 1102 1069 1084 1257 1294 1358 1090 1399 1654 1397 1580 1593
653 676 707 917 1124 1107 1141 1159 1175 1204 1153 902 845 892 936 769 710 750 829 913 985 925 966 1067 1068 1010 930 915 805 760 771 833 998 856 1036 853 817 1132 1069 1276 817 1726 1529
694 654 717 945 1150 1254 1270 1337 1354 1315 1031 959 978 909 784 669 634 660 686 699 700 749 751 683 616 626 583 487 477 528 602 654 645 651 529 362 1383 1354 1154 1167 1150 1218 1694
701 676 829 1023 1076 1131 1165 1236 1204 1113 1046 1012 978 895 745 575 476 456 635 723 637 486 337 290 287 308 351 395 406 457 510 532 506 497 176 469 971 1288 820 870 1198 1426 1747
679 768 942 1005 1040 1142 1196 1239 1253 1291 1302 1335 1203 746 500 410 438 525 462 360 264 255 261 284 290 290 192 135 99 91 87 111 168 47 475 799 1044 840 947 482 850 1282 1478
681 771 866 917 1013 1141 1201 1183 1241 1229 1187 1178 956 614 435 457 427 258 213 147 81 74 78 75 68 48 32 22 11 7 0 0 1 212 265 913 681 525 497 251 1085 1417 1208
656 676 660 722 848 982 937 922 1022 1038 1051 948 930 817 500 337 261 180 90 37 14 4 2 0 0 0 0 3 1 9 8 0 0 228 385 586 642 1319 1319 1272 1428 1056 1342
364 362 416 581 678 741 803 800 764 776 763 781 824 743 419 369 276 147 66 21 0 0 0 0 0 0 0 0 0 0 0 0 0 42 41 542 910 1458 1227 973 1169 1045 1059
71 101 180 271 363 343 325 350 402 590 702 697 642 505 403 299 303 240 75 8 0 0 0 0 0 0 0 0 0 0 0 0 0 0 155 382 934 1076 1069 1047 1025 935 975
0 0 0 29 10 8 48 189 217 279 287 322 322 222 128 105 128 143 85 29 0 0 0 0 0 0 0 0 0 0 0 0 0 0 0 47 764 801 784 725 728 782 820
27 0 7 7 0 0 0 67 203 266 181 136 231 178 104 122 63 32 23 0 36 0 0 0 0 0 0 0 0 0 0 0 0 0 0 0 319 308 290 396 420 408 478
77 65 94 39 18 0 7 55 67 73 171 215 231 221 139 154 183 85 30 75 97 16 6 9 9 0 0 0 0 0 0 0 0 0 0 0 0 0 0 0 24 85 188
175 150 163 83 82 24 44 102 86 160 261 332 269 279 198 198 229 181 31 0 0 0 0 0 0 0 0 0 0 0 0 0 0 0 0 0 0 0 0 0 0 0 0
289 221 214 142 215 139 114 91 149 169 376 517 331 17 0 0 0 0 0 0 0 0 0 0 0 0 0 0 0 0 0 0 0 0 0 0 0 0 0 0 0 0 0
312 281 222 95 120 63 56 53 85 187 465 440 144 45 0 1 0 0 0 0 0 0 0 0 0 0 0 0 0 0 0 0 0 0 0 0 0 0 0 0 0 0 0
413 383 369 332 360 42 3 17 108 106 130 161 85 22 2 5 2 0 0 0 0 0 0 0 0 0 0 0 0 0 0 0 0 0 0 0 0 0 0 0 0 0 0
484 688 582 520 301 410 296 96 107 133 105 132 35 9 0 0 0 0 0 0 0 0 0 0 0 0 0 0 0 0 0 0 0 0 0 0 0 0 0 4 3 0 0
833 949 890 648 366 131 296 177 61 199 20 0 2 0 1 7 5 0 0 0 0 0 0 0 0 0 0 0 0 0 0 0 0 0 0 0 0 0 0 0 15 29 29
893 1124 966 670 432 303 302 124 55 36 24 8 6 3 4 23 29 12 1 0 1 0 0 0 0 0 0 0 0 0 0 0 0 0 0 0 0 0 0 1 8 16 31
696 900 795 622 421 200 83 57 67 55 23 19 3 0 0 3 5 10 12 1 0 0 0 0 0 0 0 0 0 0 0 0 0 0 0 0 0 0 0 0 0 1 11
611 541 296 194 77 67 69 72 47 32 5 0 0 0 5 18 23 8 2 6 1 0 0 0 0 0 0 0 0 0 0 0 0 0 0 0 0 0 0 0 0 0 0
125 84 83 57 38 5 0 0 0 0 0 0 0 0 1 7 9 12 4 0 0 0 0 0 0 0 0 0 0 0 0 0 0 0 0 0 0 0 0 0 9 6 17
30 27 11 0 0 0 0 0 0 0 0 0 0 0 0 0 0 0 0 0 0 0 0 0 0 1 8 7 4 1 0 0 0 0 0 0 0 0 0 0 0 6 29
2 0 0 0 0 0 0 0 0 0 0 0 0 0 0 0 0 0 0 0 0 0 0 0 5 5 8 0 9 4 7 5 0 0 0 0 0 0 0 0 0 0 1
0 0 0 0 0 0 0 0 0 0 0 0 0 0 1 0 0 0 0 0 0 0 0 0 0 0 0 1 0 1 0 4 3 0 0 0 0 0 0 0 0 0 3
0 0 0 0 0 0 0 0 0 0 0 0 0 0 0 0 0 0 0 0 0 0 0 1 3 2 0 0 0 0 0 0 1 0 0 0 0 0 0 0 0 0 4

GFSSE_con_mucape_027.txt.gz
CAPE
466 556 683 933 978 1025 1065 1055 1042 1026 960 799 720 686 651 644 649 704 819 1071 1131 913 897 843 797 769 766 722 640 600 593 674 696 909 1047 1092 1193 954 1504 1778 1683 1824 1496
508 513 678 918 1018 1067 1098 1104 1075 1013 876 742 708 653 632 631 642 645 646 594 555 626 648 612 576 550 482 365 317 375 403 447 447 560 661 585 893 1023 1238 1191 1510 1667 1750
532 534 725 890 1108 1205 1198 1110 1161 894 814 826 734 660 616 590 525 450 499 525 442 284 203 190 208 196 218 250 257 343 359 324 331 454 219 535 1184 1215 779 1132 1329 1723 1795
497 581 767 970 1091 1222 1227 1199 1139 923 841 826 751 687 595 443 402 474 470 319 160 132 127 127 148 140 91 34 17 15 19 20 81 38 217 359 748 1271 805 803 968 1381 1738
565 712 808 814 939 1125 1119 1122 1113 1103 1089 954 775 532 383 411 420 301 256 169 100 74 66 48 30 21 14 0 0 0 0 0 0 32 310 560 643 1039 1048 492 627 1091 1222
615 755 725 791 922 1084 1156 1127 1135 1140 1111 950 731 426 447 388 219 173 130 58 31 16 6 0 0 0 0 0 0 0 0 0 0 44 173 496 488 404 328 330 770 1480 1289
737 714 704 763 893 1049 978 981 1006 989 907 840 800 701 392 277 178 99 47 16 7 0 0 0 0 0 0 0 0 0 0 0 0 32 96 364 526 793 1103 1171 1353 1303 1443
636 621 597 696 770 849 927 911 825 830 739 753 786 732 402 335 257 96 34 3 0 0 0 0 0 0 0 0 0 0 0 0 0 0 67 339 506 1087 1160 1108 1207 1215 1245
429 370 408 418 493 541 515 498 473 520 542 577 592 593 467 374 237 169 45 14 0 0 0 0 0 0 0 0 0 0 0 0 0 0 0 36 355 605 583 605 781 938 1076
96 66 73 112 129 87 119 235 289 360 383 397 347 226 88 102 109 109 49 40 2 0 0 0 0 0 0 0 0 0 0 0 0 0 0 0 300 665 691 600 523 667 825
0 0 0 1 0 0 0 27 170 265 252 233 183 120 56 27 19 12 35 29 62 21 1 4 9 0 0 0 0 0 0 0 0 0 0 0 29 272 282 83 240 398 485
0 1 0 0 0 0 0 3 0 58 47 131 205 117 91 131 126 44 6 60 185 172 146 97 42 19 0 0 0 0 0 0 0 0 0 0 3 59 0 0 0 9 53
30 34 27 0 0 4 16 28 21 78 127 199 251 237 203 148 147 175 108 0 0 0 0 0 0 0 0 0 0 0 0 0 0 0 0 0 0 0 0 0 0 0 0
104 127 158 26 0 1 34 96 67 115 266 291 282 237 69 64 0 0 0 0 0 0 0 0 0 0 0 0 0 0 0 0 0 0 0 0 0 0 0 0 0 0 0
220 248 248 82 133 40 90 85 148 164 237 440 450 84 8 0 0 0 0 0 0 0 0 0 0 0 0 0 0 0 0 0 0 0 0 0 0 0 0 0 0 0 0
287 329 305 171 139 48 78 126 174 259 255 485 334 38 2 0 0 0 0 0 0 0 0 0 0 0 0 0 0 0 0 0 0 0 0 0 0 0 0 0 2 0 0
320 385 398 215 193 70 38 35 122 159 326 85 200 46 12 0 0 0 0 0 0 0 0 0 0 0 0 0 0 0 0 0 0 0 0 0 0 0 0 0 0 23 58
409 427 349 247 137 184 187 108 53 117 77 30 81 27 1 5 8 12 5 0 0 0 0 0 0 0 0 0 0 0 0 0 0 0 0 0 0 0 0 0 0 0 64
521 485 342 134 273 94 199 109 89 62 7 14 29 14 8 14 29 30 30 17 5 5 4 0 0 0 0 0 0 0 0 0 0 0 0 0 0 0 0 0 0 0 0
733 609 363 305 236 209 193 136 71 21 56 46 43 35 6 6 12 25 19 16 9 1 0 0 0 0 0 0 0 0 0 0 0 0 0 0 0 0 0 0 0 0 0
918 781 532 373 304 125 117 93 68 68 35 38 13 16 21 14 7 9 5 4 5 1 0 0 0 0 0 0 0 0 0 0 0 0 0 0 0 0 0 0 0 0 0
529 206 103 91 59 50 49 47 11 0 0 8 7 0 0 0 0 0 0 0 0 0 0 0 0 0 0 0 0 0 0 0 0 0 0 0 0 0 0 0 0 0 0
46 14 0 0 0 0 0 0 0 0 0 0 0 0 0 0 0 0 0 0 0 0 0 0 0 0 0 0 0 0 0 0 0 0 0 0 0 0 0 0 0 0 0
0 0 0 0 0 0 0 0 0 0 0 0 0 0 0 0 0 0 0 0 0 0 0 0 0 0 0 0 0 0 0 0 0 0 0 0 0 0 0 0 0 0 0
0 0 0 0 0 0 0 0 0 0 0 0 0 0 3 0 0 0 0 0 0 0 0 0 0 0 0 0 0 0 0 0 0 0 0 0 0 0 0 0 0 0 0
0 0 0 0 0 0 0 0 0 0 0 0 0 0 0 0 0 0 0 0 0 0 0 0 0 0 0 0 0 0 0 7 0 12 0 0 0 0 0 0 0 0 0

GFSSE_con_mucape_030.txt.gz
CAPE
390 477 817 1070 1114 1131 1007 949 889 871 837 683 624 581 585 583 639 654 688 864 624 511 503 458 410 321 226 181 234 281 296 320 362 406 578 705 866 1065 1576 1895 1921 1705 1778
472 480 779 1000 1151 1121 1049 1020 940 871 784 616 573 562 542 548 527 429 424 435 383 229 135 125 104 118 121 135 177 187 160 157 257 377 324 487 991 1005 1087 1303 1568 1764 1750
463 579 737 921 1094 1093 1048 977 998 794 711 636 578 544 532 438 353 410 371 186 103 88 63 78 60 15 1 0 0 0 0 0 17 77 137 94 687 1134 722 1045 1499 1438 1728
498 671 790 989 1076 1140 1108 1060 886 778 719 637 581 546 394 362 353 252 158 134 81 20 7 0 0 0 0 0 0 0 0 0 0 1 173 304 321 1058 954 517 813 1235 1475
567 696 862 935 1001 1092 1052 1013 966 951 851 724 592 384 361 332 190 125 86 83 24 3 0 0 0 0 0 0 0 0 0 0 0 0 86 215 535 552 1058 458 80 878 1226
634 709 767 790 870 1029 1069 1024 958 956 902 730 578 377 323 198 112 54 43 23 4 0 0 0 0 0 0 0 0 0 0 0 0 0 83 240 401 685 599 889 1052 955 872
726 569 611 685 843 1016 963 920 980 899 786 696 657 584 271 148 80 31 14 0 0 0 0 0 0 0 0 0 0 0 0 0 0 0 15 162 266 1029 1134 1323 1146 1296 1198
1012 580 606 705 841 926 977 950 834 737 685 715 742 646 365 297 194 31 0 0 0 0 0 0 0 0 0 0 0 0 0 0 0 0 0 0 218 777 542 1067 1218 1159 1220
591 573 568 641 685 735 706 598 566 528 533 574 577 499 439 251 147 59 27 12 0 0 21 76 64 33 58 11 0 0 0 0 0 0 0 0 145 491 442 474 714 766 885
492 381 393 416 415 337 310 318 328 348 340 376 383 256 118 49 15 19 0 15 80 118 130 216 176 131 105 64 0 0 0 0 0 0 0 0 1 28 142 361 247 256 344
146 113 95 66 16 0 10 136 308 360 299 285 224 102 20 1 0 0 0 76 164 256 208 173 199 64 27 0 0 0 0 0 0 0 0 0 0 0 62 63 227 78 70
0 0 0 0 0 0 0 3 0 33 67 90 80 55 56 71 45 21 10 15 30 0 0 0 0 0 0 0 0 0 0 0 0 0 0 0 0 0 0 0 99 40 0
0 0 0 0 0 0 0 0 0 11 52 159 149 132 116 110 122 77 59 0 0 0 0 0 0 0 0 0 0 0 0 0 0 0 0 0 0 0 0 0 27 25 3
27 9 0 0 0 0 0 3 28 123 142 232 239 252 208 110 2 0 0 0 0 0 0 0 0 0 0 0 0 0 0 0 0 0 0 0 0 0 0 0 0 85 29
107 101 54 12 0 0 6 63 98 161 259 300 402 293 61 6 0 0 0 0 0 0 0 0 0 0 0 0 0 0 0 0 0 0 0 0 0 0 0 0 0 0 50
214 282 266 88 25 3 39 96 127 169 240 348 493 257 25 1 0 0 0 0 1 0 0 0 0 0 0 0 0 0 0 0 0 0 0 0 0 0 0 0 0 0 0
243 335 409 222 135 87 61 89 131 232 283 425 444 229 43 5 0 0 0 0 12 1 0 0 0 0 0 0 0 0 0 0 0 0 0 0 0 0 0 0 0 0 0
223 355 315 276 82 35 21 42 108 173 129 108 229 180 46 10 1 0 12 23 14 13 6 1 0 0 0 0 0 0 0 0 0 0 0 0 0 0 0 0 0 0 0
250 241 280 84 51 36 41 41 22 89 122 46 46 37 31 23 10 24 26 17 9 5 2 0 0 0 0 0 0 0 0 0 0 0 0 0 0 0 0 0 0 0 0
242 245 259 84 84 100 50 46 67 29 32 37 36 34 29 14 16 12 11 1 0 0 0 0 0 0 0 0 0 0 0 0 0 0 0 0 0 0 0 0 0 0 0
443 428 293 195 100 50 38 82 79 56 27 2 0 0 4 13 3 0 0 0 0 0 0 0 0 0 0 0 0 0 0 0 0 0 0 0 0 0 0 0 0 0 0
445 254 131 59 28 0 0 0 0 0 0 0 0 0 0 0 0 0 0 0 0 0 0 0 0 0 0 0 0 0 0 0 0 0 0 0 0 0 0 0 0 0 0
94 6 1 0 0 0 0 0 0 0 0 0 0 0 0 0 0 0 0 0 0 0 0 0 0 0 0 0 0 0 0 0 0 0 0 0 0 0 0 0 0 0 0
0 0 0 0 0 0 0 0 0 0 0 0 0 0 0 0 0 0 0 0 0 0 0 0 0 0 0 0 0 0 0 0 0 0 0 0 0 0 0 0 0 0 0
0 0 0 0 0 0 0 0 0 0 0 0 0 0 0 0 0 0 0 0 0 0 0 0 0 0 0 0 0 0 0 0 0 0 0 0 0 0 0 0 0 0 0
3 0 0 0 0 0 0 0 0 0 0 0 0 0 0 0 0 0 0 0 0 0 0 0 0 0 0 0 0 0 0 0 0 0 0 0 0 0 0 0 0 0 0

GFSSE_con_mucape_033.txt.gz
CAPE
407 644 670 705 1219 1075 955 878 809 792 818 753 632 641 725 625 634 699 705 703 404 228 135 102 96 104 127 144 128 82 74 84 193 310 333 671 971 903 1124 1245 1449 1298 1599
570 781 686 760 1160 1092 1035 954 883 879 791 543 514 535 534 461 392 398 360 236 94 37 37 29 3 1 0 0 0 0 0 11 15 66 263 166 903 971 691 1046 1507 1114 1457
651 815 763 782 1139 1147 1048 1043 1044 827 608 542 513 500 391 323 355 235 107 233 54 0 0 0 0 0 0 0 0 0 0 0 0 0 19 292 402 1037 803 875 1464 1301 1414
721 852 826 850 1100 1155 1114 1086 1019 735 620 564 536 376 312 307 208 120 102 243 84 0 0 0 0 0 0 0 0 0 0 0 0 0 184 415 636 831 931 440 160 732 916
882 923 994 968 1055 1188 1110 962 969 885 800 734 584 357 332 202 96 74 58 147 14 0 0 0 0 0 0 0 0 0 0 0 0 6 146 654 844 712 760 906 718 743 1143
909 982 943 952 1028 1164 1142 1079 1008 921 809 705 586 446 229 109 23 29 23 28 0 0 0 0 0 0 0 0 0 0 0 0 0 1 179 498 792 1008 895 1445 1166 1004 1030
780 1011 1089 882 961 1141 1025 928 989 880 729 689 683 563 325 48 12 0 0 0 0 0 0 0 0 0 0 5 0 0 0 0 0 0 0 0 336 664 521 583 1054 1057 885
693 901 929 755 857 968 1051 1037 860 699 671 697 712 588 396 225 143 0 0 0 0 0 0 0 0 0 3 0 0 0 0 0 0 0 0 0 4 79 159 365 978 843 684
803 687 790 779 844 860 892 713 559 538 565 610 601 528 370 225 164 163 144 90 37 55 59 39 36 56 25 7 0 0 0 0 0 0 0 0 0 0 0 95 582 522 463
796 722 747 775 760 788 693 470 392 388 395 395 396 247 88 49 58 138 1 141 193 167 133 106 122 52 0 0 0 0 0 0 0 0 0 0 0 0 0 0 25 87 173
543 493 435 488 501 439 378 382 306 341 303 291 261 58 31 98 90 69 22 113 132 7 3 0 0 0 0 0 0 0 0 0 0 0 0 0 0 0 0 0 155 264 91
425 249 165 210 185 102 47 301 327 284 247 278 240 279 173 171 153 118 33 0 0 0 0 0 0 0 0 0 0 0 0 0 0 0 0 0 0 0 0 0 106 111 66
117 66 27 55 22 2 12 110 74 189 172 168 200 166 193 158 170 224 20 0 0 0 0 0 0 0 0 0 0 0 0 0 0 0 0 0 0 0 0 0 0 22 180
0 0 0 0 0 0 0 0 0 64 130 236 300 370 291 104 5 0 0 0 0 0 0 0 0 0 0 0 0 0 0 0 0 0 0 0 0 0 0 0 0 0 0
1 16 1 0 0 0 2 10 31 100 175 240 326 291 32 3 0 0 0 0 0 0 0 0 0 0 0 0 0 0 0 0 0 0 0 0 0 0 0 0 0 0 0
104 146 78 9 0 0 9 73 82 114 198 329 370 406 138 9 0 0 0 0 0 0 3 0 0 0 0 0 0 0 0 0 0 0 0 0 0 0 0 0 0 0 0
146 212 279 134 81 77 95 78 113 158 169 230 268 236 155 65 10 0 0 1 5 6 4 0 0 0 0 0 0 0 0 0 0 0 0 0 0 0 0 0 0 0 0
149 236 286 254 131 92 64 30 59 32 101 171 143 126 98 50 17 7 2 4 5 2 0 0 0 0 0 0 0 0 0 0 0 0 0 0 0 0 0 0 0 0 0
246 141 186 178 121 75 1 0 42 34 61 79 67 29 34 38 22 4 0 1 1 0 0 0 0 0 0 0 0 0 0 0 0 0 0 0 0 0 0 0 0 0 0
171 121 147 214 151 52 6 38 38 63 45 39 49 26 7 2 0 0 0 0 0 0 0 0 0 0 0 0 0 0 0 0 0 0 0 0 0 0 0 0 0 0 0
131 104 156 171 152 90 101 51 16 14 0 0 0 0 0 0 0 0 0 0 0 0 0 0 0 0 0 0 0 0 0 0 0 0 0 0 0 0 0 0 0 0 0
291 244 60 167 41 23 4 0 0 0 0 0 0 0 0 0 0 0 0 0 0 0 0 0 0 0 0 0 0 0 0 0 0 0 0 0 0 0 0 0 0 0 0
305 264 139 14 0 0 0 0 0 0 0 0 0 0 0 0 0 0 0 0 0 0 0 0 0 0 0 0 0 0 0 0 0 0 0 0 0 1 3 6 3 4 2
1 0 0 0 0 0 0 0 0 0 0 0 0 0 0 0 0 0 0 0 0 0 0 0 0 0 0 0 0 0 0 0 0 0 0 0 0 1 4 1 3 8 10
0 0 0 0 0 0 0 0 0 0 0 0 0 0 0 0 0 0 0 0 0 0 0 0 0 2 4 0 0 0 0 0 0 0 0 0 0 8 40 7 14 26 24
0 0 2 1 0 0 0 0 0 0 0 0 0 0 0 0 0 0 0 0 0 0 0 0 12 24 37 23 0 0 0 0 0 0 0 0 0 0 0 35 15 0 35

GFSSE_con_mucape_039.txt.gz
CAPE
474 318 734 969 969 885 822 788 778 772 811 663 617 632 590 487 416 406 369 331 154 22 1 0 0 0 0 0 0 0 0 2 31 126 236 860 1000 679 473 762 857 593 1247
499 413 634 929 975 890 844 842 830 839 754 614 578 496 462 458 340 320 313 217 9 0 0 0 0 0 0 0 0 0 3 5 20 89 307 818 810 635 633 505 1118 624 1001
616 476 495 892 1029 973 880 878 924 671 596 530 446 357 318 168 129 131 212 174 5 0 0 0 0 0 0 0 0 0 0 0 31 137 771 542 659 939 589 1213 1148 870 791
654 544 646 744 1026 1117 1104 996 840 610 540 459 342 314 165 107 68 19 5 119 13 0 0 0 0 0 0 0 0 0 0 2 71 249 146 294 457 785 487 691 813 264 365
678 653 895 804 1015 1198 1171 1039 918 802 707 493 465 171 71 20 0 0 21 154 45 0 0 0 0 0 0 0 0 0 0 22 37 15 54 71 134 382 554 446 304 251 235
710 910 625 757 990 1173 1179 1009 731 671 647 614 465 249 15 0 0 0 131 178 0 0 0 0 0 0 0 0 0 0 0 0 0 0 4 2 0 0 49 509 408 171 301
653 839 920 698 963 1117 1136 840 738 656 701 658 529 322 88 0 0 0 11 34 0 0 0 0 0 0 0 0 0 0 0 0 0 0 0 0 0 0 0 0 327 209 7
478 793 875 825 1008 1175 1123 870 737 684 731 677 563 349 107 64 85 11 20 23 23 18 13 0 0 0 0 0 0 0 0 0 0 0 0 1 0 0 0 0 217 349 26
750 877 841 1006 941 823 716 575 497 589 631 658 634 450 337 340 352 311 208 115 94 126 64 5 0 0 0 0 0 0 0 0 0 0 0 0 0 0 0 0 9 90 189
1043 873 753 663 603 611 573 412 413 468 491 500 374 253 180 141 95 266 339 93 26 29 0 0 0 0 0 0 0 0 0 0 0 0 3 0 0 0 0 0 0 0 30
641 465 432 385 440 323 215 313 335 480 450 340 155 131 47 70 123 200 20 0 0 0 0 0 0 0 0 0 0 0 0 0 0 0 0 0 0 0 0 0 0 0 0
382 369 428 426 406 258 25 77 88 129 148 305 269 284 560 371 498 237 17 0 0 0 0 0 0 0 0 0 0 0 0 0 0 0 0 0 0 0 0 0 1 1 1
356 340 308 336 286 107 178 91 135 315 556 641 653 704 884 580 612 554 302 93 94 0 18 0 0 0 0 0 0 0 0 0 0 0 0 0 0 0 0 0 1 3 4
221 147 137 148 163 86 70 179 327 505 611 701 831 895 838 765 718 492 180 88 57 9 6 0 1 0 0 0 0 0 0 0 0 0 0 0 0 0 0 0 0 0 0
145 65 11 29 128 313 346 577 580 766 1180 964 1002 1007 893 676 672 327 158 38 8 1 0 0 0 0 0 0 0 0 0 0 0 0 0 0 0 0 0 0 0 0 0
97 190 104 99 230 336 687 722 967 1192 1048 879 697 452 328 425 635 212 53 3 9 17 11 0 0 0 0 0 0 0 0 0 0 0 0 0 0 0 0 0 0 0 0
214 404 498 551 566 593 526 423 178 119 132 247 161 107 142 162 88 24 18 18 12 0 0 0 0 0 0 0 0 0 0 0 0 0 0 0 0 0 0 0 0 0 0
568 577 648 596 488 232 70 42 85 35 1 0 1 33 43 48 22 11 4 0 0 0 0 0 0 0 0 0 0 0 0 0 0 0 0 0 0 0 0 1 0 0 0
727 808 592 513 213 48 16 10 5 14 1 1 30 25 21 12 0 0 0 0 0 0 0 0 0 0 0 0 0 0 0 0 0 0 0 1 0 0 2 2 6 1 0
778 808 710 514 337 90 32 40 23 0 0 19 35 2 0 0 0 0 0 0 0 0 0 0 0 0 0 0 0 0 0 0 0 5 4 0 0 0 4 6 6 6 42
1092 842 636 487 207 117 46 1 0 0 0 2 0 0 0 0 0 0 0 0 0 0 0 0 0 0 0 0 0 0 0 0 0 0 0 2 1 1 6 10 14 7 8
1082 863 822 535 177 449 0 20 17 8 0 0 0 0 0 0 0 0 0 0 0 0 0 0 0 1 1 1 0 0 0 0 0 0 2 8 6 9 7 13 9 12 15
863 721 948 586 601 279 204 7 1 0 0 0 0 0 0 0 0 0 0 0 0 0 0 3 9 12 0 15 13 5 0 0 0 4 7 14 35 18 20 5 7 7 15
952 1039 724 463 351 91 1 0 0 2 8 9 3 10 0 0 0 0 0 0 1 3 9 18 20 31 45 0 28 20 37 23 0 0 24 25 20 41 66 28 2 2 8
930 726 469 309 45 1 0 0 1 20 23 9 1 0 0 0 4 0 1 5 7 16 27 66 93 78 79 59 49 57 76 53 42 42 0 41 34 61 89 63 40 31 21
413 324 49 6 7 0 0 2 13 18 1 13 4 1 0 0 1 5 8 13 18 18 36 49 63 50 60 70 64 73 62 48 32 48 51 40 45 19 46 63 82 63 67

GFSSE_con_mucape_042.txt.gz
CAPE
333 322 793 961 1001 917 828 753 724 705 775 816 744 622 532 387 344 319 279 141 29 0 0 0 0 0 0 0 9 14 19 23 35 206 836 711 514 514 428 913 671 490 1260
235 325 729 864 879 855 812 793 773 780 763 501 476 530 366 352 308 264 185 131 22 0 0 0 0 0 0 0 0 0 6 125 198 341 624 561 623 518 583 866 891 878 1184
289 391 557 759 881 911 984 967 897 791 492 351 306 353 295 273 263 245 172 109 18 0 0 0 0 0 0 0 0 0 16 98 138 137 338 334 377 417 467 838 588 609 434
402 287 416 753 978 1134 1037 945 821 644 435 451 295 223 256 148 56 0 154 167 19 0 0 0 0 0 0 0 0 0 30 85 112 181 195 143 85 500 388 422 291 4 196
309 491 567 665 862 1087 1024 967 805 663 532 441 265 162 17 0 0 0 225 149 130 0 0 0 0 0 0 0 0 0 0 5 42 61 4 0 0 17 252 379 80 4 126
722 520 410 575 787 1021 967 998 818 616 502 355 235 184 16 0 39 60 239 205 39 0 0 0 0 0 0 0 13 14 0 8 12 0 0 0 0 0 0 70 614 374 243
365 320 351 510 742 937 972 827 690 636 522 386 273 181 150 32 27 55 219 185 59 0 0 0 0 0 0 14 0 0 13 19 0 0 1 0 0 4 0 0 218 334 144
144 249 383 698 791 907 870 725 621 565 497 426 300 223 240 150 173 177 256 250 141 43 0 0 0 0 0 0 0 0 0 0 0 0 11 0 49 33 10 3 247 229 239
144 266 526 670 782 578 425 417 473 495 506 483 386 328 334 338 301 379 361 224 154 108 0 0 0 0 0 0 0 0 0 0 0 0 0 0 0 0 0 0 1 48 215
194 229 451 698 590 438 277 324 348 374 382 337 258 192 142 132 236 377 220 108 51 0 0 0 0 0 0 0 0 0 0 0 0 0 0 0 0 0 0 0 1 3 5
186 392 468 481 445 346 283 310 362 433 358 228 162 145 30 15 43 153 33 8 0 0 0 0 0 0 0 0 0 0 0 0 0 0 0 0 0 0 0 0 11 12 18
185 271 349 406 393 151 44 142 113 140 61 42 72 150 209 421 140 100 0 0 0 0 0 0 0 0 0 0 0 0 0 0 0 0 0 0 0 0 0 0 4 8 10
237 239 222 309 250 54 33 65 56 106 247 540 559 511 698 739 439 203 67 0 52 0 11 0 7 0 0 0 0 0 0 0 0 0 0 0 0 0 0 0 0 2 2
172 196 218 172 276 230 86 143 303 492 680 722 776 687 714 690 718 411 171 177 64 9 0 0 0 0 0 0 0 0 0 0 0 0 0 0 0 0 0 0 0 0 1
49 80 81 136 332 315 581 675 543 520 621 560 857 549 431 602 589 357 127 16 0 0 2 0 0 0 0 0 0 0 0 0 0 0 0 0 0 0 0 0 0 0 0
41 56 50 124 400 578 695 642 507 567 624 501 381 320 361 396 496 223 9 0 0 6 0 0 0 0 0 0 0 0 0 0 0 0 0 0 0 0 0 0 0 0 0
29 10 101 291 644 436 393 309 239 196 55 30 44 82 86 102 117 68 38 8 4 0 0 0 0 0 0 0 0 0 0 0 0 0 0 0 1 1 0 0 0 0 0
210 200 323 516 456 325 277 216 91 45 1 11 3 2 3 6 5 9 23 3 0 0 0 0 0 0 0 0 0 0 0 0 0 0 0 0 0 0 13 13 7 0 0
357 551 620 429 368 199 31 34 41 8 8 0 0 0 1 1 0 0 0 0 0 0 0 0 0 0 0 0 0 0 0 0 0 0 0 0 0 0 0 3 40 49 4
653 534 407 270 116 106 36 11 23 16 5 0 0 0 1 0 0 0 0 0 0 0 0 0 0 0 0 0 0 0 0 0 0 0 0 4 0 0 0 0 0 0 39
803 542 368 292 68 62 59 29 4 3 0 0 0 0 0 0 0 0 0 0 0 0 0 0 0 0 0 0 0 0 0 0 0 0 0 0 0 0 0 0 0 0 0
999 794 488 321 294 34 39 34 0 0 0 0 0 0 0 0 0 0 0 0 0 0 0 0 0 0 0 0 0 0 0 0 0 0 0 0 0 0 0 0 0 0 0
1149 704 548 360 169 173 21 27 0 0 0 0 0 0 0 0 0 0 0 0 0 0 0 0 0 2 0 0 0 4 0 0 0 0 0 0 0 0 0 2 3 1 0
1127 731 730 545 354 405 149 0 0 0 0 0 0 1 0 0 0 0 0 0 0 0 0 0 0 0 2 0 7 4 0 0 0 0 0 0 0 0 0 0 0 0 0
747 854 884 688 217 39 0 0 0 15 11 10 10 11 12 6 0 0 0 2 3 3 1 1 7 5 12 22 20 5 7 0 0 0 0 0 0 0 0 0 8 0 0
942 991 696 309 100 0 0 7 4 14 3 0 0 1 0 0 0 0 0 0 0 0 0 0 0 0 0 19 25 21 13 0 0 0 0 0 0 0 0 0 0 0 2

GFSSE_con_mucape_045.txt.gz
CAPE
321 699 893 1026 953 958 794 711 696 713 732 624 445 357 320 268 156 92 33 0 0 0 0 0 0 0 0 0 0 0 0 5 261 724 771 483 534 320 255 646 637 439 758
420 750 823 933 946 912 853 824 782 715 569 319 326 317 261 205 137 92 40 0 10 0 0 0 0 0 0 0 0 0 8 83 61 505 576 405 404 411 202 264 523 400 731
596 701 796 704 837 924 988 946 819 655 367 155 200 286 194 137 67 42 53 50 57 0 0 0 0 0 0 0 0 0 29 52 76 74 540 114 147 316 203 364 202 109 3
572 602 623 664 862 990 919 822 656 451 256 266 248 181 117 34 1 2 68 112 68 0 0 0 0 0 0 0 0 0 19 65 321 316 2 0 7 169 224 90 36 0 0
358 490 688 753 805 864 877 785 564 450 321 235 161 83 0 9 16 18 183 130 90 0 0 0 0 0 0 0 0 0 0 32 0 0 4 0 0 9 41 75 8 0 0
354 437 539 643 639 957 975 682 542 358 220 163 127 127 23 54 48 43 188 146 15 0 0 0 0 0 0 0 0 0 0 47 0 0 0 13 12 52 43 43 146 47 69
261 314 269 366 565 957 829 657 451 331 231 181 200 205 169 53 42 55 222 166 58 3 0 0 0 0 0 0 0 0 0 26 0 0 0 5 31 73 52 67 83 124 114
139 170 150 310 624 764 660 545 401 300 221 201 249 236 229 192 216 154 233 209 108 38 0 0 0 0 0 0 0 0 0 28 0 0 0 0 56 17 16 0 18 187 127
10 93 130 298 444 455 370 313 262 285 238 241 242 239 238 243 299 363 346 208 87 3 0 0 0 0 0 0 0 0 0 2 0 0 0 0 11 0 0 0 3 13 108
50 106 174 293 322 255 231 234 219 230 209 188 173 165 156 201 254 161 81 128 62 0 0 0 0 0 0 0 0 0 0 0 0 0 0 0 0 0 0 0 4 10 14
101 181 171 255 235 181 178 236 204 228 128 100 99 73 24 8 9 40 0 0 0 0 0 0 0 0 0 0 0 0 0 0 0 0 0 0 0 0 0 0 0 6 12
106 166 203 296 127 96 139 82 91 77 4 1 36 25 21 26 20 0 0 0 0 0 0 0 0 0 0 0 0 0 0 0 0 0 0 0 0 0 0 0 0 2 5
160 93 310 294 99 0 10 1 0 0 0 0 136 199 192 118 68 36 0 0 0 0 0 0 0 0 0 0 0 0 0 0 0 0 0 0 0 0 0 0 0 0 0
180 161 337 305 3 0 0 1 133 126 169 206 353 321 303 266 231 143 27 13 0 0 0 0 0 0 0 0 0 0 0 0 0 0 0 0 0 0 0 0 0 0 0
177 165 131 27 0 0 9 82 192 289 314 366 315 243 215 272 116 56 3 0 3 0 0 0 0 0 0 0 0 0 0 0 0 0 0 0 0 0 0 0 0 0 0
117 40 132 28 3 219 197 211 274 284 292 280 230 147 214 219 62 11 7 0 0 0 0 0 0 0 0 0 0 0 0 0 0 0 0 0 0 0 0 0 0 0 0
16 0 55 166 331 250 240 230 187 194 213 170 168 98 48 66 86 24 12 1 0 0 0 0 0 0 0 0 0 0 0 0 0 0 0 0 0 0 0 0 0 0 0
12 0 72 325 375 272 257 220 183 145 11 6 1 0 8 26 26 31 43 0 0 0 0 0 0 0 0 0 0 0 0 0 0 0 0 0 0 0 5 5 0 0 0
30 121 393 377 420 309 219 170 109 40 2 2 4 0 0 5 4 1 0 0 0 0 0 0 0 0 0 0 0 0 0 0 0 0 0 0 0 0 1 3 0 0 0
245 298 428 390 370 314 206 117 49 35 22 0 0 0 0 0 0 0 0 0 0 0 0 0 0 0 0 0 0 0 0 0 0 0 0 0 0 0 0 0 0 0 0
373 401 429 408 361 200 55 38 27 22 3 10 8 0 0 0 0 0 0 0 0 0 0 0 0 0 0 0 0 0 0 0 0 0 0 0 0 0 0 0 0 0 0
468 460 462 367 178 26 25 19 22 5 0 0 0 0 0 0 0 0 0 0 0 0 0 0 0 0 0 0 0 0 0 0 0 0 0 0 0 0 0 0 0 0 0
559 613 506 363 225 71 60 19 26 0 0 0 0 0 0 0 0 0 0 0 0 0 0 0 0 0 0 0 0 0 0 0 0 0 0 0 0 0 0 0 0 0 0
771 775 598 490 334 80 36 4 0 0 0 0 0 0 0 0 0 0 0 0 0 0 0 0 0 0 0 0 0 0 1 1 0 0 0 0 0 0 0 0 0 0 0
812 875 650 466 232 171 76 2 0 0 0 0 0 0 0 0 2 0 0 0 0 0 0 0 0 0 0 0 0 0 1 3 1 0 0 0 0 0 0 0 0 0 0
969 789 498 324 243 257 29 0 0 0 0 0 0 3 8 8 2 4 0 0 0 0 0 0 0 0 0 0 0 1 18 0 0 5 0 0 0 0 0 0 0 0 0

GFSSE_con_mucape_048.txt.gz
CAPE
607 716 892 1077 1007 849 716 687 700 629 481 307 232 234 112 70 27 0 0 42 7 0 0 0 0 0 0 0 0 0 0 273 542 396 437 450 259 81 33 205 247 219 560
622 705 821 971 933 875 838 775 705 552 291 161 163 167 142 92 46 39 79 75 17 0 0 0 0 0 0 0 0 1 3 113 580 547 334 296 274 164 56 15 156 28 39
775 702 757 784 863 916 968 880 702 413 176 83 100 135 135 81 43 126 125 93 13 0 0 0 0 0 0 0 9 403 232 219 515 242 47 0 0 58 0 0 31 0 0
782 656 605 667 809 902 896 793 576 240 136 214 143 58 133 37 21 32 71 71 44 0 0 0 0 0 0 0 0 32 94 110 0 0 0 0 0 13 0 0 0 0 0
749 524 580 611 749 903 809 651 434 317 271 221 162 82 40 29 36 21 133 104 69 0 0 0 0 0 0 0 0 17 8 0 0 0 0 0 0 9 28 25 0 0 0
598 530 574 629 769 797 755 581 391 273 211 169 225 237 122 76 56 57 203 126 32 0 0 0 0 0 0 0 0 0 0 0 0 0 0 0 0 14 22 38 38 3 4
539 454 388 580 659 723 728 487 329 260 190 230 277 260 228 61 60 92 232 167 77 0 0 0 0 0 0 0 0 0 0 0 0 0 0 0 0 0 0 0 1 50 94
118 217 317 316 376 456 494 381 287 256 204 246 271 240 231 214 180 168 199 179 75 0 0 0 0 0 0 0 0 0 0 0 0 0 0 0 1 0 1 0 3 18 20
142 107 75 58 271 389 330 278 229 228 206 237 238 215 232 237 272 322 302 176 43 1 0 0 0 0 0 0 0 0 0 0 0 0 0 0 20 1 1 0 2 3 6
61 41 9 53 237 350 327 257 209 215 182 186 164 151 167 190 201 196 183 144 48 0 0 0 0 0 0 0 0 0 0 0 0 0 0 0 0 0 1 0 0 3 3
7 4 2 115 129 207 191 179 192 182 146 142 149 111 25 18 5 0 2 23 4 0 0 0 0 0 0 0 0 0 0 0 0 0 0 0 0 0 0 0 0 0 2
12 12 88 129 188 121 121 95 42 31 8 1 10 7 20 12 15 0 0 14 0 0 0 0 0 0 0 0 0 0 0 0 0 0 0 0 0 0 0 0 0 0 0
37 169 151 196 64 23 21 20 1 0 19 67 81 40 61 45 1 0 0 0 0 0 0 0 0 0 0 0 0 0 0 0 0 0 0 0 0 0 0 0 0 0 0
112 179 274 137 21 1 0 0 1 0 70 184 228 225 197 36 89 105 0 0 0 0 0 0 0 0 0 0 0 0 0 0 0 0 0 0 0 0 0 0 0 0 0
140 174 290 63 7 3 1 0 9 30 135 228 266 293 297 245 71 0 0 0 0 0 0 1 0 0 0 0 0 0 0 0 0 0 0 0 0 0 0 0 0 0 0
110 153 178 41 0 0 5 133 156 197 321 345 318 288 205 236 69 31 3 2 0 0 0 0 0 0 0 0 0 0 0 0 0 0 0 0 0 0 0 0 0 0 0
179 217 323 23 52 56 158 177 225 277 346 294 158 154 139 119 48 38 7 7 3 6 0 0 0 0 0 0 0 0 0 0 0 0 0 0 0 9 0 0 0 0 0
184 165 144 99 63 101 190 256 319 369 230 109 65 66 6 14 27 29 30 23 0 0 0 0 0 0 0 0 0 0 0 0 0 0 0 0 0 0 0 3 0 0 0
103 69 225 232 265 283 292 296 268 225 85 16 11 0 0 0 4 22 11 1 0 0 0 0 0 0 0 0 0 0 0 0 0 0 0 0 0 0 0 0 0 0 0
65 156 264 337 301 302 276 222 179 145 84 19 0 0 0 0 0 3 0 0 0 0 0 0 0 0 0 0 0 0 0 0 0 0 0 0 0 0 0 0 0 0 0
99 190 203 377 393 358 269 208 150 92 21 12 15 15 6 0 2 0 0 0 0 0 0 0 0 0 0 0 0 0 0 0 0 0 0 0 0 0 0 0 0 0 0
245 319 393 394 415 362 248 157 87 34 42 45 27 9 0 0 0 0 0 0 0 0 0 0 0 0 0 0 0 0 0 0 0 0 0 0 0 0 0 0 0 0 0
328 334 452 463 385 372 314 79 31 43 45 0 0 0 0 0 0 0 0 0 0 0 0 0 0 0 0 0 0 0 0 0 0 0 0 0 0 0 0 0 0 0 0
288 344 483 488 436 352 88 27 62 34 0 0 0 0 0 0 0 0 0 0 0 0 0 0 0 0 0 0 0 0 0 0 0 0 0 0 0 0 0 0 0 0 0
335 403 524 552 448 394 172 81 34 12 0 0 0 0 0 0 0 0 0 0 0 0 0 0 0 0 0 0 0 0 0 0 0 0 0 0 0 0 0 0 0 0 0
510 538 562 572 562 387 138 125 0 0 0 0 0 0 0 0 0 0 0 1 0 0 0 0 0 0 0 0 0 0 0 0 0 0 0 0 0 0 0 0 0 0 0

GFSSE_con_mucape_051.txt.gz
CAPE
719 857 974 1041 853 780 730 645 535 360 305 171 50 38 43 60 94 82 61 14 0 0 0 0 0 0 0 0 0 199 370 375 390 524 362 174 119 46 19 3 0 0 163
816 851 953 947 852 792 797 682 465 328 187 26 51 78 94 130 138 134 84 3 0 0 0 0 0 0 71 182 14 71 316 474 468 353 86 60 36 35 9 0 39 0 1
871 949 923 792 812 848 851 686 452 229 46 16 13 111 148 202 146 139 86 45 38 0 0 0 0 1 73 185 308 353 330 63 39 26 0 0 0 0 0 0 0 0 0
929 903 782 702 757 840 740 557 354 146 82 79 113 66 146 106 61 84 142 98 66 22 0 0 0 0 0 44 71 31 26 9 6 0 0 0 0 22 1 8 1 1 0
908 720 544 570 709 795 673 442 306 248 208 208 230 121 86 51 34 58 183 113 69 17 0 0 0 0 0 0 0 0 0 0 0 0 0 0 0 0 2 5 2 3 7
795 589 378 405 653 764 635 493 408 266 209 235 255 252 124 63 74 104 180 122 88 0 0 0 0 0 0 0 0 0 0 0 0 0 0 0 0 4 2 5 13 25 26
650 554 256 380 614 708 631 499 355 256 277 320 326 289 254 179 93 169 217 166 99 14 0 0 0 0 0 0 0 0 0 0 0 0 0 0 0 3 3 3 6 9 13
370 396 199 328 364 281 439 373 292 284 351 355 319 290 262 244 230 226 236 181 105 40 5 0 0 0 0 0 0 0 0 0 0 0 0 0 2 2 2 0 0 0 0
91 2 11 55 184 353 291 289 301 320 346 339 304 282 279 250 262 273 271 193 101 44 0 0 0 0 0 0 0 0 0 0 0 0 0 0 7 4 0 0 0 0 0
18 105 47 55 120 164 188 251 282 328 354 320 319 281 238 255 280 279 217 161 79 2 0 3 0 0 0 0 0 0 0 0 0 0 0 0 0 3 2 0 0 0 0
14 27 48 38 109 107 148 222 268 320 266 224 205 183 78 32 22 0 45 81 1 0 3 0 0 0 0 0 0 0 0 0 0 0 0 5 0 5 0 0 0 0 0
6 3 1 1 49 154 184 166 100 116 80 61 41 26 4 1 0 0 11 23 1 0 0 0 0 0 0 0 0 0 0 0 0 0 0 0 0 0 2 0 0 0 0
40 7 0 4 45 181 140 113 47 45 33 23 16 31 30 23 5 0 0 0 0 0 0 0 0 0 0 0 0 0 0 0 0 0 0 0 0 0 1 0 0 0 0
2 18 104 106 132 120 64 33 8 6 5 26 27 54 63 12 17 0 0 0 0 0 0 0 0 0 0 0 0 0 0 0 0 0 0 0 0 0 0 0 0 0 0
58 144 202 172 80 34 1 0 0 14 81 181 168 200 166 67 92 20 0 0 0 0 0 0 0 0 0 0 0 0 0 0 0 0 0 0 0 0 0 0 0 3 0
120 166 215 193 25 24 1 0 0 25 107 226 310 348 330 176 110 0 0 8 6 0 0 1 0 0 0 0 0 0 0 0 0 0 0 0 0 5 0 0 0 0 0
178 190 306 276 24 3 0 0 10 135 241 354 347 335 262 226 116 26 19 16 19 14 18 0 0 0 0 0 0 0 0 0 0 0 0 0 0 0 0 0 0 0 0
144 142 264 86 11 0 5 20 163 308 411 378 301 206 184 178 105 56 28 33 41 42 1 0 0 0 0 0 0 0 0 0 0 0 0 0 0 0 0 0 0 0 0
174 148 251 101 0 1 25 182 217 325 394 310 250 107 96 38 22 9 29 28 35 0 0 0 0 0 0 0 0 0 0 0 0 0 0 0 0 0 0 0 0 0 0
309 330 359 320 21 37 108 219 301 368 382 281 119 47 2 0 0 13 29 1 0 0 0 0 0 0 0 0 0 0 0 0 0 0 0 0 0 0 0 0 0 0 0
334 271 192 148 86 72 206 290 338 384 306 169 57 7 0 2 19 0 0 0 0 0 0 0 0 0 0 0 0 0 0 0 0 0 0 0 0 0 0 0 0 0 0
372 219 126 111 194 272 354 381 379 266 155 65 22 22 39 48 11 0 0 0 0 0 0 0 0 0 0 0 0 0 0 0 0 0 0 0 0 0 0 0 0 0 0
359 89 149 186 256 311 378 358 294 184 54 40 49 64 81 20 0 0 0 0 0 0 0 0 0 0 0 0 0 0 0 0 0 0 0 0 0 0 0 0 0 0 0
344 120 234 205 278 296 351 372 265 128 63 57 75 40 2 0 0 0 0 0 0 0 0 0 0 0 0 0 0 0 0 0 0 0 0 0 0 0 0 0 0 0 0
253 127 237 202 237 334 389 324 303 197 60 57 18 0 0 0 0 0 0 0 3 0 7 1 0 0 0 0 0 0 0 0 0 0 0 0 0 0 0 0 0 0 0
154 138 219 208 263 281 430 393 274 89 50 53 2 0 0 0 0 1 3 6 19 7 6 3 0 0 0 0 0 0 0 0 0 0 0 0 0 0 0 0 0 0 0

GFSSE_con_mucape_054.txt.gz
CAPE
843 774 822 879 821 716 584 457 372 320 231 117 87 81 76 102 136 81 33 24 29 0 0 0 5 0 15 335 215 193 243 320 383 285 44 5 3 2 0 0 0 0 0
1051 817 744 867 860 727 573 423 340 206 135 28 83 121 165 169 127 75 39 44 42 0 5 182 270 296 71 309 346 168 77 142 96 51 1 0 0 0 0 0 1 0 1
1144 905 750 775 869 728 560 422 253 153 81 24 22 130 206 183 144 110 92 56 74 18 59 261 210 193 240 392 108 19 0 0 24 9 0 0 0 2 2 3 2 1 3
1093 915 697 795 830 622 446 292 179 117 114 121 131 145 193 185 195 193 126 56 65 36 6 91 289 371 268 106 82 0 0 0 0 0 0 0 0 6 4 5 7 10 8
1019 1045 690 633 623 511 357 249 202 187 171 177 232 196 85 149 196 178 118 49 72 40 0 0 0 0 0 14 0 0 0 0 0 0 0 0 0 6 7 10 12 17 19
907 827 477 548 530 510 407 374 284 256 249 245 294 312 177 148 115 217 150 83 92 49 0 0 0 0 0 0 0 0 0 0 0 0 0 0 0 9 8 4 8 10 12
627 935 374 432 504 566 536 448 379 333 327 329 379 312 298 260 222 273 221 169 63 52 9 0 0 0 0 0 0 0 0 0 0 0 0 0 0 10 4 0 0 2 3
538 346 277 318 194 337 395 333 364 364 377 417 373 320 345 314 288 254 240 194 131 47 23 9 1 0 0 0 0 0 0 0 0 0 0 0 6 5 4 2 0 0 3
310 136 63 52 25 240 244 298 345 402 399 394 371 352 336 316 276 254 209 154 124 121 84 44 3 0 0 0 0 0 0 0 0 0 0 0 10 12 4 0 0 0 0
151 91 3 43 32 224 211 295 320 357 371 371 347 313 305 336 309 266 182 143 108 81 12 3 0 0 0 0 0 0 0 0 0 0 0 0 5 9 6 0 0 0 0
51 25 0 11 0 177 187 242 325 427 396 333 282 245 99 83 50 1 96 61 113 7 0 0 0 0 0 0 0 0 0 0 0 0 0 3 0 6 9 0 0 0 0
31 24 1 9 35 50 105 102 184 278 198 107 66 38 27 5 0 5 18 38 0 0 0 0 0 0 0 0 0 0 0 0 0 0 0 0 0 3 7 3 2 0 0
15 14 21 6 55 91 75 79 107 125 52 12 16 1 4 0 0 0 0 0 0 0 0 0 0 0 0 0 0 0 0 0 0 0 0 0 0 0 3 0 5 0 0
11 7 0 0 35 134 106 42 43 32 22 5 0 7 5 0 0 0 0 0 0 0 0 0 0 0 0 0 0 0 0 0 0 0 0 0 0 0 7 0 5 0 0
0 0 12 35 47 131 82 35 19 2 0 0 45 53 44 0 0 3 11 0 0 0 0 0 0 0 0 0 0 0 0 0 0 0 0 0 0 0 1 0 1 10 0
1 18 119 87 64 116 37 5 0 0 7 24 76 137 121 44 81 47 22 0 1 8 19 15 5 0 0 0 0 0 0 0 0 0 0 0 0 0 0 0 0 0 0
19 91 169 203 150 71 0 0 0 0 0 92 222 273 321 165 146 62 22 17 23 29 23 18 1 0 0 0 0 0 0 0 0 0 0 0 0 0 0 0 0 0 0
94 183 253 248 193 37 0 0 0 0 51 201 298 318 371 260 126 87 49 29 21 24 29 6 0 0 0 0 0 0 0 0 0 0 0 0 0 0 0 0 0 0 0
162 182 252 256 269 1 0 0 0 45 169 222 305 241 238 161 145 86 49 27 47 50 11 0 0 0 0 0 0 0 0 0 0 0 0 0 0 0 0 0 0 0 0
183 153 196 246 158 0 0 0 1 100 244 346 333 234 138 144 85 26 12 37 57 6 0 0 0 0 0 0 0 0 0 0 0 0 0 0 0 0 0 0 0 0 0
202 190 125 211 73 0 0 9 76 164 223 314 218 142 129 30 7 26 45 25 0 0 0 0 0 0 0 0 0 0 0 0 0 0 0 0 0 0 0 0 0 0 0
148 291 287 264 323 36 42 53 79 143 243 244 267 181 71 31 39 58 4 0 0 0 0 0 0 0 0 0 0 0 0 0 0 0 0 0 0 0 0 0 0 0 0
171 326 381 379 439 104 49 58 94 198 246 185 172 119 45 47 58 36 0 0 0 0 0 0 0 0 0 0 0 0 0 0 0 0 0 0 0 0 0 0 0 0 0
294 376 475 317 218 65 37 36 161 277 265 224 109 46 47 75 57 0 0 0 0 0 0 0 0 0 0 0 0 0 0 0 0 0 0 0 0 0 0 0 0 0 0
375 407 451 407 145 59 73 156 267 335 279 183 45 48 56 46 3 1 0 0 0 1 0 3 0 0 0 0 0 1 0 0 0 0 0 0 0 0 0 0 0 0 0
501 457 389 413 148 115 141 209 276 279 189 131 38 63 88 3 6 0 0 0 0 6 17 6 3 7 2 4 0 0 0 0 0 0 0 0 0 0 0 0 0 0 0

GFSSE_con_mucape_057.txt.gz
CAPE
837 737 880 1008 880 706 550 512 433 304 213 139 113 103 99 96 67 80 107 111 136 87 69 101 345 401 153 80 39 95 29 0 0 1 0 0 0 0 0 0 0 0 0
912 802 778 975 914 721 588 472 297 159 139 158 175 160 136 113 89 101 119 202 277 268 305 178 351 323 148 0 0 0 0 0 0 0 0 0 1 2 1 0 0 0 0
970 765 810 875 890 748 654 413 252 176 138 136 241 229 153 129 145 130 152 235 656 461 428 231 465 342 0 0 0 0 0 0 0 0 0 0 1 5 7 7 7 5 2
946 803 783 843 779 674 459 280 226 182 220 282 314 244 206 192 171 154 125 197 657 753 491 366 564 52 0 25 56 0 0 0 0 0 0 0 4 10 10 13 17 19 16
955 759 748 682 601 504 323 226 204 250 293 328 293 276 301 227 184 173 108 100 245 467 339 352 96 0 5 36 6 0 0 0 0 0 1 4 9 15 12 14 13 13 18
757 736 432 486 470 396 318 281 263 269 291 294 226 270 310 276 201 153 114 113 127 168 31 0 0 0 0 0 0 0 0 0 0 0 0 5 11 10 4 3 7 11 14
244 521 522 396 418 456 453 334 284 261 304 305 273 286 289 269 236 174 150 133 80 64 66 4 2 0 0 0 0 0 0 0 0 0 0 4 11 8 4 2 2 5 10
484 387 273 365 224 89 272 343 241 282 319 317 324 325 342 337 254 208 168 144 116 53 10 0 0 0 0 0 0 0 0 0 0 0 0 5 7 7 3 0 0 1 3
384 263 108 68 1 1 206 392 293 336 357 326 325 320 349 287 205 175 149 150 102 48 13 0 0 0 0 0 0 0 0 0 0 0 0 3 10 8 3 0 0 0 0
338 222 34 0 7 0 126 459 366 334 353 344 309 282 258 266 262 227 135 153 143 94 9 0 0 0 0 0 0 0 0 0 0 0 0 3 10 13 6 1 0 0 0
206 239 255 135 48 10 90 270 456 411 328 303 273 217 105 46 33 1 110 112 25 0 0 0 0 0 0 0 0 0 0 0 0 0 0 5 0 5 5 3 0 0 0
27 11 28 1 0 0 0 19 247 285 231 213 159 120 63 59 37 2 45 6 0 0 0 0 0 0 0 0 0 0 0 0 0 0 0 0 0 4 7 6 4 0 0
96 62 34 15 2 23 22 90 201 176 140 133 81 83 53 92 44 11 0 0 0 0 0 0 0 0 0 0 0 0 0 0 0 0 0 0 0 4 5 4 7 0 0
48 17 7 23 64 59 96 138 150 129 96 68 80 108 46 16 1 0 0 0 0 0 0 0 0 0 0 0 0 0 0 0 0 0 0 0 0 0 4 0 9 1 0
32 26 11 19 131 115 92 99 96 89 64 79 81 137 19 0 0 2 0 0 0 2 0 0 6 2 0 0 0 0 0 0 0 0 0 0 0 0 2 1 5 1 2
7 15 2 32 127 166 88 64 46 41 34 18 25 119 51 3 2 14 16 2 2 3 2 11 13 0 0 0 0 0 0 0 0 0 0 0 0 0 0 0 0 0 0
0 0 0 18 144 173 60 18 11 9 12 17 29 81 143 48 40 58 46 31 15 8 11 15 3 0 0 0 0 0 0 0 0 0 0 0 0 0 0 0 0 0 0
0 2 100 144 149 156 48 14 6 6 17 100 106 189 150 221 63 61 44 59 52 22 14 38 0 0 0 0 0 0 0 0 0 0 0 0 0 0 0 0 0 0 0
25 70 241 311 212 141 16 0 5 26 125 126 166 325 314 261 119 61 58 39 42 25 9 0 0 0 0 0 0 0 0 0 0 0 0 0 0 0 0 0 0 0 0
95 167 323 300 231 170 0 0 9 33 55 55 208 304 253 142 76 95 42 19 13 0 0 0 0 0 0 0 0 0 0 0 0 0 0 0 0 0 0 0 0 0 0
230 215 285 246 228 244 9 2 0 5 19 171 310 304 167 159 138 49 28 5 2 6 0 0 0 0 0 0 0 0 0 0 0 0 0 0 0 0 0 0 0 0 0
204 266 217 213 246 262 27 22 21 17 17 176 285 239 130 80 55 16 6 12 0 0 0 0 0 0 0 0 0 0 0 0 0 0 0 0 0 0 0 0 0 0 0
190 248 236 203 183 221 64 40 30 21 43 159 223 188 44 100 54 20 23 27 0 0 0 0 0 0 0 0 0 0 0 0 0 0 0 0 0 0 0 0 0 0 0
222 183 244 222 263 235 355 45 32 29 24 162 160 82 51 86 66 54 19 1 0 0 0 0 3 2 2 2 0 0 0 0 0 0 0 0 0 0 0 0 0 0 0
422 275 199 181 401 382 427 400 21 19 29 66 129 64 49 60 54 43 21 0 0 0 0 0 0 8 6 5 0 0 0 1 0 0 0 0 0 0 0 0 0 0 0
605 554 440 264 373 449 364 395 89 34 52 74 90 111 67 27 47 69 0 0 0 0 0 1 2 12 10 1 1 0 0 0 0 0 0 0 0 0 0 0 4 0 0

GFSSE_con_mucape_060.txt.gz
CAPE
1040 750 987 1120 1150 1084 984 844 685 516 313 183 146 146 141 150 164 188 197 229 413 686 568 337 416 159 35 21 0 0 0 0 0 0 0 1 3 2 0 0 21 5 3
1091 732 884 1029 1082 1032 945 737 486 289 226 205 183 156 128 150 188 202 269 360 486 430 509 270 143 0 0 0 0 0 0 0 0 2 49 0 2 5 8 2 3 11 11
1186 716 908 875 927 937 776 559 369 294 286 267 207 164 169 216 261 322 587 757 737 684 545 248 0 0 0 0 0 0 0 0 0 0 8 3 2 11 15 13 19 14 15
1180 758 655 831 826 755 544 370 300 340 320 281 241 220 240 298 326 579 809 711 951 860 707 62 0 0 0 4 0 0 0 0 0 0 3 7 0 7 8 7 22 20 26
1319 721 700 714 697 603 456 328 302 324 322 273 278 308 319 327 315 561 771 715 762 1082 611 13 0 0 0 28 1 0 0 0 0 0 0 5 2 3 3 1 6 8 13
1048 826 427 504 579 550 483 380 395 365 283 284 298 329 336 345 302 332 409 645 932 848 107 0 0 0 0 0 0 0 0 0 0 0 3 7 5 7 3 4 5 9 9
371 534 530 334 431 516 543 517 464 368 263 294 317 284 296 316 299 258 218 296 280 207 48 0 0 0 0 0 0 0 0 0 0 0 3 5 11 6 2 1 3 5 7
151 46 130 118 152 90 99 167 299 342 293 298 287 288 282 286 248 255 195 158 186 199 145 29 2 0 0 0 0 0 0 0 0 0 2 7 10 4 0 0 1 1 3
229 190 158 98 3 1 3 43 154 391 425 373 334 321 269 218 211 233 191 135 108 60 14 0 0 0 0 0 0 0 0 0 0 0 0 6 8 9 2 1 1 2 4
528 282 213 137 13 0 6 23 310 435 375 365 372 283 210 217 219 216 164 152 142 79 0 0 0 0 0 0 0 0 0 0 0 0 0 4 15 15 8 0 1 3 5
275 202 213 84 4 0 0 36 197 361 309 287 306 228 81 40 31 10 78 176 89 9 0 0 0 0 0 0 0 0 0 0 0 0 0 8 9 14 11 6 1 1 3
238 122 8 20 43 14 3 3 180 203 253 237 178 144 48 51 38 40 10 5 0 0 0 0 0 0 0 0 0 0 0 0 0 0 0 0 0 9 9 9 9 0 0
133 173 202 224 52 0 1 11 42 191 235 230 223 117 120 95 50 7 0 0 0 0 0 0 0 0 0 0 0 0 0 0 0 0 0 0 0 7 2 9 3 0 0
36 11 26 1 2 1 4 1 14 51 111 109 142 171 171 124 102 28 0 0 0 0 0 0 0 0 0 0 0 0 0 0 0 0 0 0 0 3 0 3 2 0 0
46 35 7 8 98 24 53 96 134 130 119 119 174 162 122 107 82 11 0 0 0 0 1 3 1 0 0 0 0 0 0 0 0 0 0 0 5 8 0 0 1 0 0
31 24 5 17 100 100 106 203 143 64 61 144 122 151 144 89 92 4 0 0 4 0 0 0 0 0 0 0 0 0 0 0 0 0 0 0 0 0 0 0 0 0 0
2 0 40 76 158 164 92 160 91 27 50 20 167 389 111 69 71 0 12 24 23 0 0 0 0 0 0 0 0 0 0 0 0 0 0 0 0 0 0 0 0 0 0
8 18 45 20 128 212 111 84 65 61 34 43 227 505 615 203 115 19 37 37 14 18 2 0 0 0 0 0 0 0 0 0 0 0 0 0 0 0 0 0 0 0 0
14 2 6 0 28 435 340 122 112 109 84 141 390 594 758 647 121 42 35 39 11 16 2 1 0 0 0 0 0 0 0 0 0 0 0 0 0 0 0 0 0 0 0
29 35 85 84 203 603 501 282 111 223 189 309 529 685 717 437 110 36 49 31 13 9 0 0 0 0 0 0 0 0 0 0 0 0 0 0 0 0 0 0 0 0 0
128 201 318 355 484 728 569 220 83 113 142 255 464 615 335 229 59 54 58 17 2 5 2 0 0 0 0 0 0 0 0 0 0 0 0 0 0 0 0 0 0 0 0
272 267 335 504 801 690 495 186 32 40 164 194 419 353 280 113 102 63 57 4 2 4 0 1 0 0 0 0 0 0 0 0 0 0 0 0 0 0 0 0 0 0 0
534 478 411 509 753 633 600 278 102 79 186 275 300 191 99 137 122 85 33 4 2 5 4 0 0 0 0 0 0 0 1 0 0 0 0 0 0 0 0 0 0 0 0
655 566 537 578 704 705 741 438 196 66 61 156 340 226 164 86 73 61 22 7 10 13 1 0 0 0 0 0 5 0 2 0 0 0 0 0 0 0 0 0 0 0 0
874 851 739 581 651 733 716 606 416 209 17 180 392 222 74 74 38 47 18 56 74 47 3 0 0 0 1 1 0 1 0 0 0 0 0 0 0 0 0 0 0 0 0
1182 1126 1003 857 772 809 826 723 730 577 339 343 127 90 34 47 37 29 44 77 69 33 0 0 0 6 14 2 5 0 0 1 0 0 0 0 0 0 0 0 0 4 7

GFSSE_con_mucape_063.txt.gz
CAPE
1122 973 1222 1501 1492 1370 1208 1025 846 671 540 431 352 334 327 345 398 438 690 765 898 831 344 230 202 89 22 0 0 0 0 107 22 0 0 6 8 1 0 18 23 9 7
1219 945 1109 1426 1445 1395 1246 997 764 543 472 427 379 327 283 369 371 477 689 887 987 705 128 44 0 0 0 0 0 0 0 0 71 135 71 0 11 14 12 12 28 22 14
1477 914 1199 1192 1296 1285 1166 900 644 552 525 486 399 313 367 407 507 592 694 849 946 599 13 0 0 0 0 0 0 0 0 0 0 2 98 0 7 17 28 27 31 29 34
1405 873 1144 992 1080 1177 935 674 577 600 543 450 360 407 490 606 872 964 848 852 933 486 0 0 0 0 0 0 0 0 0 0 0 40 12 0 0 19 19 11 6 8 20
1312 725 1203 775 872 884 663 555 535 536 431 383 410 561 626 1014 1110 1130 1017 872 859 325 26 29 1 0 0 0 0 0 0 0 22 6 0 0 0 4 3 4 10 8 5
1417 538 558 611 626 580 550 587 550 486 371 374 460 592 741 1071 1106 997 916 789 776 315 44 0 0 0 0 0 0 0 0 0 36 9 2 0 0 2 4 5 8 7 8
695 368 193 370 427 428 561 594 553 469 463 463 512 490 582 663 768 883 918 713 351 229 10 0 0 0 0 0 0 0 0 0 1 5 1 0 0 0 1 1 2 6 5
398 207 77 62 60 101 204 277 347 435 472 479 451 413 432 371 395 488 381 276 244 175 82 0 0 0 0 0 0 0 0 0 0 8 5 1 1 1 2 1 6 3 3
331 50 27 73 13 11 1 21 178 281 381 452 416 349 325 284 262 290 340 326 256 188 92 0 0 0 0 0 0 0 0 0 0 0 1 0 4 2 3 2 4 5 5
343 105 53 0 5 12 6 0 65 296 425 374 337 309 252 257 228 236 230 231 168 80 3 0 0 0 0 0 0 0 0 0 0 0 0 2 6 9 3 4 4 5 5
312 229 104 30 20 16 3 0 50 226 269 274 291 246 159 124 59 77 180 213 192 60 0 0 0 0 0 0 0 0 0 0 0 0 0 13 10 11 9 1 1 3 2
157 222 176 100 115 22 0 0 44 105 201 190 187 188 148 148 133 128 129 129 43 0 0 0 0 0 0 0 0 0 0 0 0 0 0 0 9 12 9 4 1 0 0
124 169 51 73 28 6 4 6 43 106 146 171 238 235 246 221 182 155 38 0 0 0 0 0 0 0 0 0 0 0 0 0 0 0 0 0 0 10 10 0 0 0 0
153 189 99 44 6 4 2 0 82 151 198 212 186 388 402 279 327 160 4 0 0 0 0 0 0 0 0 0 0 0 0 0 0 0 0 0 0 4 0 11 0 0 0
96 42 27 6 8 1 8 3 43 95 146 216 179 328 392 381 446 155 136 0 0 0 0 0 0 0 0 0 0 0 0 0 0 0 0 0 0 4 0 0 4 0 0
15 5 9 16 5 0 4 66 110 118 78 185 182 280 500 420 432 112 132 1 0 0 0 0 0 0 0 0 0 0 0 0 0 0 0 0 0 0 0 0 0 0 0
7 5 4 6 96 121 127 201 168 131 81 135 128 287 294 360 385 275 77 10 3 11 0 0 0 0 0 0 0 0 0 0 0 0 0 0 0 0 0 0 0 0 0
4 0 2 13 122 178 211 226 110 58 106 195 183 202 323 214 222 169 87 29 21 18 10 0 0 0 0 0 0 0 0 0 0 0 0 0 0 0 0 0 0 0 0
4 10 40 63 89 79 65 107 128 378 137 25 99 290 492 242 288 179 60 28 33 11 2 12 0 0 0 0 0 0 0 0 0 0 0 0 0 0 0 0 0 0 0
65 66 37 17 59 100 265 112 10 66 14 61 131 248 524 696 532 286 101 20 21 14 9 0 0 0 0 0 0 0 0 0 0 0 0 0 0 0 0 0 0 0 0
69 48 26 12 14 149 163 63 23 32 41 54 209 384 579 656 581 474 293 54 24 1 3 0 0 0 0 0 0 0 0 0 0 0 0 0 0 0 0 0 0 0 0
63 61 59 9 18 235 290 212 5 0 1 26 80 412 599 640 475 372 332 46 36 3 0 1 0 0 0 0 0 0 0 0 0 0 0 0 0 0 0 0 0 0 0
168 176 246 277 242 298 291 238 26 5 26 78 123 332 700 656 344 304 270 39 53 15 3 4 3 5 0 0 0 0 0 0 0 0 0 0 0 0 0 0 0 0 0
494 345 314 378 416 487 497 388 188 23 2 50 154 246 377 348 190 150 56 40 56 24 8 3 28 21 0 0 0 0 0 3 0 0 0 0 0 0 0 0 0 0 0
863 709 721 490 486 589 633 622 513 248 61 87 161 345 402 485 233 78 14 45 59 32 15 33 54 18 1 0 0 3 6 5 2 0 0 0 0 0 2 0 0 0 0
966 1211 960 780 655 718 816 862 894 672 549 149 257 617 619 394 103 20 40 56 64 59 55 42 49 8 0 0 2 0 0 0 0 0 0 0 0 0 0 0 0 0 0

GFSSE_con_mucape_066.txt.gz
CAPE
1016 1176 1436 1475 1423 1341 1222 1058 886 703 652 633 587 572 545 537 534 652 901 884 859 663 112 72 0 0 0 0 0 0 88 143 52 26 14 15 12 17 15 34 21 5 14
657 1393 1568 1476 1454 1412 1292 1109 901 713 673 662 632 570 573 635 894 992 993 815 586 257 8 0 0 0 0 0 0 0 0 167 101 79 5 15 28 40 47 29 42 10 41
49 1031 1555 1498 1534 1544 1392 1139 927 816 745 739 621 617 640 808 959 1061 961 570 364 175 2 0 0 0 0 0 0 0 5 26 26 50 8 0 8 23 24 15 28 24 35
21 1060 1712 1358 1406 1473 1252 965 813 770 723 585 575 609 648 791 946 1100 872 391 296 227 0 0 0 0 0 0 0 0 13 43 56 29 0 0 0 18 17 12 10 15 21
1380 1392 1735 1296 1224 1326 1051 851 754 678 506 493 579 732 808 952 1043 1091 794 292 348 273 43 0 0 0 0 0 0 0 0 12 2 0 0 0 0 5 5 7 10 13 13
1362 1084 1116 1158 967 933 823 786 682 506 443 537 673 951 1230 1266 1169 1056 575 369 420 237 12 0 0 0 0 0 0 0 3 11 0 0 0 0 0 6 5 7 7 7 8
891 749 553 552 609 695 812 706 512 488 533 656 880 1131 1206 1299 1042 948 513 365 293 167 0 0 0 0 0 0 0 0 0 3 0 0 0 0 0 4 6 5 3 4 5
647 553 428 258 5 308 376 292 270 407 453 540 708 847 1009 1041 906 680 365 255 180 119 38 0 0 0 0 0 0 0 0 0 0 0 0 0 0 3 5 7 7 4 3
142 120 44 0 43 6 1 60 109 246 293 379 428 405 439 426 386 337 278 237 184 124 52 1 0 0 0 0 0 0 0 0 0 0 0 0 1 3 5 5 6 6 7
265 132 19 0 0 0 45 2 111 233 211 236 240 181 236 294 277 273 251 220 189 109 22 5 0 0 0 0 0 0 0 0 0 0 0 0 4 6 5 6 4 3 3
211 201 75 0 0 0 0 2 3 337 269 209 174 174 83 111 78 79 172 163 131 74 35 0 0 0 0 0 0 0 0 0 0 0 0 15 7 7 4 4 0 0 2
116 114 19 18 0 0 2 9 0 50 111 116 86 65 61 56 117 120 161 127 88 51 6 0 0 0 0 0 0 0 0 0 0 0 0 5 8 8 6 0 0 0 0
74 92 98 51 30 21 5 3 0 28 90 100 131 129 100 147 109 75 43 15 3 0 0 0 0 0 0 0 0 0 0 0 0 0 0 0 10 10 7 0 0 0 0
50 89 78 33 1 10 4 3 0 2 84 78 216 175 181 169 140 59 19 4 0 0 0 0 0 0 0 0 0 0 0 0 0 0 0 0 0 3 13 6 0 0 0
21 43 20 27 27 9 3 13 4 56 77 150 228 260 219 182 141 84 75 3 0 0 0 0 0 0 0 0 0 0 0 0 0 0 0 0 0 3 0 6 0 0 0
12 23 4 4 15 2 20 2 42 103 157 188 267 362 421 230 250 107 176 7 0 0 0 0 0 0 0 0 0 0 0 0 0 0 0 0 0 0 0 0 0 0 0
16 11 14 0 5 1 1 41 90 83 145 194 230 386 409 411 363 277 118 87 1 0 0 0 0 0 0 0 0 0 0 0 0 0 0 0 0 0 0 0 0 0 0
18 19 17 5 4 8 18 21 111 88 84 156 214 240 347 323 273 267 117 54 1 0 1 0 0 0 0 0 0 0 0 0 0 0 0 0 0 0 0 0 0 0 0
2 2 0 4 0 93 147 121 136 120 138 93 159 271 274 232 212 195 152 32 2 2 3 5 7 0 0 0 0 0 0 0 0 0 0 0 0 0 0 0 0 0 0
0 0 0 0 5 54 153 206 134 68 78 70 73 164 183 69 258 245 68 49 17 0 2 6 0 0 0 0 0 0 0 0 0 0 0 0 0 0 0 0 0 0 0
0 0 0 6 85 108 25 31 4 64 12 0 0 33 345 411 436 288 77 64 25 5 3 0 0 0 0 0 0 0 0 0 0 0 0 0 0 0 0 0 0 0 0
7 51 59 58 120 76 21 0 0 4 5 0 10 44 345 409 445 401 317 169 57 0 0 0 2 0 5 0 0 0 0 0 0 0 0 1 0 0 0 0 0 0 0
3 22 27 37 33 90 80 20 1 3 0 0 8 111 461 503 411 341 264 315 46 10 10 19 18 7 6 11 0 0 0 0 0 0 9 1 0 0 0 0 0 0 0
35 48 42 3 0 51 203 180 84 0 0 0 0 64 507 532 416 318 274 182 71 20 17 31 29 1 4 40 16 0 0 0 0 0 0 0 0 0 0 0 0 0 0
161 110 164 214 125 137 185 245 217 49 7 0 44 56 445 379 281 206 174 176 72 1 18 22 20 30 23 23 9 0 0 0 0 0 0 0 0 0 0 0 0 0 0
425 426 252 333 307 329 413 345 441 181 105 13 55 97 384 314 217 203 156 87 21 1 12 60 50 33 1 1 0 15 0 0 0 0 0 0 0 0 0 0 0 0 0

GFSSE_con_mucape_069.txt.gz
CAPE
1372 1627 1455 1584 1652 1445 1243 1099 890 797 788 789 724 613 669 698 939 972 823 492 370 187 3 0 0 0 0 0 0 30 58 47 41 30 40 34 29 26 21 18 23 19 34
1145 1158 1186 1605 1741 1555 1346 1099 897 816 889 871 779 645 700 1026 1073 969 744 481 219 2 0 0 0 0 0 0 13 74 77 64 39 11 8 17 13 30 20 17 33 22 34
860 774 585 703 1767 1720 1406 1113 1007 981 970 892 785 790 1073 1147 1014 765 523 255 158 2 0 0 0 0 0 0 10 37 26 31 27 0 0 0 4 19 19 18 16 18 25
180 216 16 3 478 1690 1380 1073 1024 1110 1011 927 852 1064 1191 1141 805 507 282 185 196 5 0 0 0 0 0 0 2 15 7 0 0 0 0 0 0 16 17 15 14 13 17
88 15 1 68 840 1523 1240 944 960 923 856 834 860 1105 1262 1143 650 438 273 215 173 0 0 0 0 0 0 0 0 0 0 0 0 0 0 0 0 10 13 9 9 15 23
866 657 893 749 830 1206 1145 979 850 714 695 721 839 1089 1315 1154 589 455 334 257 180 0 0 0 0 0 0 0 0 0 0 0 0 0 0 0 0 11 6 6 6 15 21
1080 834 485 437 277 365 1007 962 663 614 646 712 910 1030 1134 938 561 455 318 179 96 0 0 0 0 0 0 0 0 0 0 0 0 0 0 0 0 10 11 9 11 17 17
708 541 417 360 151 27 23 559 487 563 651 918 1006 1066 1022 697 485 403 209 96 79 39 0 0 0 0 0 0 0 0 0 0 0 0 0 0 2 8 10 9 8 12 13
615 457 325 204 91 0 70 37 42 134 684 841 861 813 740 353 285 212 131 109 93 42 0 0 0 0 0 0 0 0 0 0 0 0 0 0 2 5 10 7 7 10 10
402 295 109 4 0 0 5 2 0 112 349 492 517 423 292 144 139 110 82 103 75 32 0 0 0 0 0 0 0 0 0 0 0 0 0 0 1 3 5 4 5 6 12
280 136 18 19 1 0 0 0 34 158 270 289 359 307 246 132 27 26 77 83 86 45 26 0 0 0 0 0 0 0 0 0 0 0 0 3 3 3 4 2 2 2 3
171 187 43 35 0 0 0 0 0 81 78 184 222 230 194 58 25 41 75 76 84 61 32 1 0 0 0 0 0 0 0 0 0 0 0 5 1 2 1 0 0 0 0
17 7 0 12 2 0 0 0 0 33 87 85 83 24 9 12 24 25 15 11 7 2 0 0 0 0 0 0 0 0 0 0 0 0 0 3 5 4 0 0 0 0 0
11 4 6 51 16 16 5 0 0 47 98 48 6 68 14 8 5 1 0 2 7 0 0 0 0 0 0 0 0 0 0 0 0 0 0 0 10 4 5 1 0 0 0
3 133 30 43 12 1 1 11 0 79 49 74 81 79 48 21 1 1 0 0 2 0 0 0 0 0 0 0 0 0 0 0 0 0 0 0 0 3 14 0 0 0 0
30 14 15 12 28 17 8 10 3 35 30 108 125 95 89 52 5 6 0 0 9 2 0 0 0 0 0 0 0 0 0 0 0 0 0 0 0 0 0 0 0 0 0
12 55 17 6 2 7 0 0 4 32 68 130 158 147 128 79 11 15 0 0 5 1 0 0 0 0 0 0 0 0 0 0 0 0 0 0 0 0 0 0 0 0 0
2 6 7 4 2 1 0 2 2 42 62 115 151 139 128 163 47 38 19 3 0 0 0 0 0 0 0 0 0 0 0 0 0 0 0 0 0 0 0 0 0 0 0
6 5 0 11 1 0 0 2 7 22 49 30 62 110 121 143 59 116 22 1 0 0 0 4 0 0 0 0 0 0 0 0 0 0 0 0 0 0 0 0 0 0 0
1 2 12 9 3 2 8 5 1 2 9 4 7 16 76 58 135 79 20 0 0 0 0 3 0 0 0 0 0 0 0 0 0 0 0 0 0 0 0 0 0 0 0
0 0 0 0 0 0 0 0 7 0 1 0 0 21 39 25 120 51 76 55 10 0 0 1 3 0 0 0 0 0 0 0 0 0 0 0 0 0 0 0 0 0 0
0 0 0 0 0 0 0 0 0 0 0 0 0 20 57 34 46 96 83 62 68 16 8 4 7 9 15 11 1 4 0 0 0 0 0 0 3 0 0 0 0 0 0
0 0 0 0 0 0 0 0 0 0 0 0 0 0 94 139 166 232 150 104 79 96 59 1 0 12 23 12 8 2 0 0 0 0 0 0 0 0 0 0 0 0 0
0 0 0 0 0 0 0 0 0 0 0 0 0 0 126 192 257 278 297 201 219 171 118 15 3 20 42 10 2 3 8 7 0 0 0 0 2 0 0 0 0 0 0
0 1 0 0 0 0 0 3 0 0 0 0 0 0 143 197 199 247 307 206 199 221 130 37 24 11 20 4 12 1 1 0 0 0 0 0 0 0 0 0 0 0 0
0 31 0 0 0 0 0 20 29 3 0 0 0 0 44 231 313 297 329 234 161 123 76 67 2 20 33 26 0 0 0 0 0 0 0 0 0 0 0 0 0 0 0

GFSSE_con_mucape_072.txt.gz
CAPE
1675 1509 1658 1819 1677 1577 1384 1111 1067 1030 984 1141 1103 1109 1039 886 705 590 475 321 235 50 2 10 60 35 13 17 17 28 43 47 43 46 35 20 27 25 31 30 31 17 20
1920 1606 1717 1793 1668 1622 1285 1165 1054 1011 965 1049 1043 1216 1133 947 680 548 376 245 96 6 0 5 12 18 24 31 50 34 1 19 11 19 16 24 24 24 29 27 32 31 47
1893 1418 1704 1615 1593 1517 1225 1279 1184 1117 1036 1026 1163 1284 1232 986 775 507 290 167 30 0 0 2 5 6 15 2 0 23 0 0 0 6 6 1 5 26 23 13 32 52 54
955 1139 1067 827 587 502 1228 1211 1227 1224 1018 1167 1418 1385 1186 955 688 454 299 96 29 0 0 0 0 0 0 0 0 0 0 0 0 0 0 0 1 19 16 15 33 37 44
563 467 790 611 252 916 1032 1049 1227 1098 923 1269 1470 1357 1067 854 645 504 218 75 15 0 0 0 0 0 0 0 0 0 0 0 0 0 0 0 0 12 18 22 14 19 10
702 265 47 141 142 267 749 947 1059 975 931 1188 1355 1167 993 820 745 462 191 71 2 0 0 0 0 0 0 0 0 0 0 0 0 0 0 0 0 13 12 17 16 12 19
763 579 502 91 44 29 9 171 856 819 933 1182 1272 872 782 760 652 386 176 39 0 0 0 0 0 0 0 0 0 0 0 0 0 0 0 0 0 12 16 20 16 16 15
726 687 253 175 37 25 74 7 477 590 779 1052 1034 699 655 635 446 284 119 15 0 0 0 0 0 0 0 0 0 0 0 0 0 0 0 0 9 13 14 17 16 14 20
730 586 264 203 171 13 6 3 81 87 652 894 749 538 482 360 190 131 53 9 0 0 0 0 0 0 0 0 0 0 0 0 0 0 0 0 8 11 11 11 13 13 12
636 585 264 190 190 74 0 0 5 68 355 523 444 350 252 133 77 50 0 0 0 0 0 0 0 0 0 0 0 0 0 0 0 0 0 0 3 6 7 6 8 6 5
297 222 131 56 33 12 0 0 0 10 143 345 314 185 71 0 0 0 3 0 5 0 0 0 0 0 0 0 0 0 0 0 0 0 0 2 2 4 4 4 6 7 7
346 260 105 51 35 1 0 0 0 1 23 155 214 200 52 0 0 0 35 43 38 2 0 0 0 0 0 0 0 0 0 0 0 0 0 5 2 3 2 2 1 1 5
218 226 248 39 1 0 0 0 1 1 19 84 143 146 85 19 5 12 16 11 4 0 0 1 0 0 0 0 0 0 0 0 0 0 0 6 3 3 2 0 0 0 0
6 19 4 1 4 0 0 0 1 0 0 35 42 64 31 0 0 0 0 2 1 0 0 0 0 0 0 0 0 0 0 0 0 0 0 1 6 3 3 0 0 0 0
21 51 3 8 15 12 4 0 0 0 0 0 34 60 0 0 0 0 0 3 3 0 0 0 0 0 0 0 0 0 0 0 0 0 0 0 5 0 1 0 0 0 0
38 41 22 20 24 19 7 4 0 0 0 32 44 5 0 0 0 0 0 1 9 7 0 0 0 0 0 0 0 0 0 0 0 0 0 0 0 1 4 0 0 0 0
14 18 34 34 51 16 5 3 4 1 3 10 45 30 0 0 0 0 0 0 19 9 0 0 0 0 0 0 0 0 0 0 0 0 0 0 0 0 0 0 0 0 0
11 13 10 33 5 21 4 10 8 4 18 26 63 44 24 4 0 0 0 0 5 7 0 0 0 0 0 0 0 0 0 0 0 0 0 0 0 0 0 0 0 0 0
7 0 27 6 5 12 16 1 5 14 27 54 89 60 53 14 0 1 0 0 0 0 0 0 0 0 0 0 0 0 0 0 0 0 0 0 0 0 0 0 0 0 0
6 17 13 26 17 14 11 2 5 16 52 65 72 108 75 85 24 52 12 1 0 0 0 0 0 0 0 0 0 0 0 0 0 0 0 0 0 0 0 0 0 0 0
0 12 19 13 20 21 4 1 0 5 5 20 62 67 100 101 56 45 28 15 3 0 0 0 0 0 0 0 0 0 0 0 0 0 0 0 0 0 0 0 0 0 0
0 0 0 0 0 1 5 3 0 3 0 12 8 6 1 6 37 29 16 22 1 0 0 0 0 0 0 2 0 7 0 0 0 0 0 0 0 0 0 0 0 0 0
0 0 0 0 0 0 0 0 0 0 0 0 0 0 0 7 3 35 52 47 43 29 9 0 0 2 3 16 13 23 2 0 0 0 0 1 0 0 0 0 0 0 0
0 0 0 0 0 0 0 0 0 0 0 0 0 0 0 18 19 15 38 25 47 34 33 23 43 35 18 37 18 10 0 0 0 0 1 6 0 0 2 4 1 0 0
0 0 0 0 0 0 0 0 0 0 0 0 0 0 0 10 49 45 75 81 90 115 112 116 92 35 36 23 15 3 4 1 2 0 0 0 0 0 1 5 1 1 0
0 0 0 0 0 0 0 0 0 0 0 0 0 0 0 12 44 115 110 152 185 251 193 200 102 63 46 19 14 18 8 21 11 1 0 0 0 0 0 1 0 1 0

GFSSE_con_mucape_075.txt.gz
CAPE
1544 1479 1667 1785 1641 1428 1406 1361 1339 1328 1130 1154 1171 1056 1028 947 953 772 544 341 227 253 26 24 45 15 14 15 17 14 38 46 49 21 30 31 41 23 43 26 31 10 31
1622 1517 1661 1720 1685 1520 1476 1442 1387 1433 1254 1134 1084 1114 1067 989 856 652 425 283 320 273 20 17 14 17 14 13 14 4 0 14 33 36 31 28 36 19 42 76 85 48 52
1588 1595 1611 1572 1698 1587 1492 1425 1402 1538 1574 1499 1314 1139 1031 921 763 552 390 308 316 278 21 22 28 37 17 14 3 2 3 4 19 9 10 5 10 31 61 53 63 57 66
1719 1423 979 471 927 1507 1505 1433 1364 1437 1724 1643 1451 1158 1040 861 678 483 279 158 313 287 34 25 13 5 2 11 0 1 4 1 0 0 0 1 7 32 45 36 27 38 42
1517 1047 633 307 103 228 578 424 618 968 1078 1623 1454 1246 1032 788 705 440 149 70 253 251 22 6 0 0 8 0 0 0 0 0 0 0 0 0 0 18 20 15 13 10 9
1172 779 621 224 91 315 628 710 376 585 806 1177 1379 1163 946 850 680 408 113 33 195 191 4 0 0 0 0 0 0 0 0 0 0 0 0 0 1 30 23 25 14 20 22
520 373 543 432 186 204 282 141 577 610 814 952 1235 933 827 772 621 305 66 23 59 18 0 0 0 3 0 0 0 0 0 0 0 0 0 0 4 22 22 17 16 18 16
745 496 298 228 187 41 29 8 80 325 377 870 977 820 768 582 448 181 37 0 0 0 0 0 0 0 0 0 0 0 0 0 0 0 0 0 8 17 16 20 20 15 13
571 351 259 204 71 17 51 13 62 129 313 601 714 661 495 313 224 97 21 0 0 0 0 0 0 0 0 0 0 0 0 0 0 0 0 0 11 13 15 14 17 12 14
731 491 196 115 70 23 2 36 154 145 148 223 358 464 280 209 138 80 0 0 0 0 0 0 0 0 0 0 0 0 0 0 0 0 0 0 7 8 14 13 12 12 12
180 374 382 115 47 26 0 20 45 106 174 194 234 281 107 92 69 2 0 0 0 0 0 0 0 0 0 0 0 0 0 0 0 0 0 11 4 4 5 7 8 8 6
261 270 85 34 19 2 1 0 0 25 60 103 131 137 80 30 7 2 0 0 0 0 0 0 0 0 0 0 0 0 0 0 0 0 0 9 3 4 3 3 5 5 0
191 178 143 2 0 12 0 0 0 13 59 45 127 63 13 38 6 0 0 0 0 0 0 0 0 0 0 0 0 0 0 0 0 0 2 8 1 1 2 2 0 0 0
68 90 92 83 11 0 0 0 2 4 19 40 118 41 18 17 4 0 0 0 0 1 0 0 0 0 0 0 0 0 0 0 0 0 0 9 4 0 0 0 0 0 0
6 110 46 1 0 1 0 0 0 2 19 46 82 30 0 0 0 0 3 5 0 0 0 0 0 0 0 0 0 0 0 0 0 0 0 0 11 4 2 0 0 0 0
6 20 3 0 0 5 1 1 0 1 1 17 22 0 0 0 0 0 2 2 0 0 0 1 0 0 0 0 0 0 0 0 0 0 0 0 0 2 1 0 0 0 0
25 13 13 20 1 5 3 3 0 4 1 0 14 59 10 0 0 0 0 0 1 2 0 0 0 0 0 0 0 0 0 0 0 0 0 0 0 0 0 0 0 0 0
10 23 17 9 18 19 16 1 4 1 3 17 20 71 2 0 0 0 0 0 9 14 11 0 0 0 0 0 0 0 0 0 0 0 0 0 0 0 0 0 0 0 0
14 2 6 3 6 29 6 9 13 2 11 36 35 47 0 0 0 0 0 0 0 14 3 2 0 0 0 0 0 0 0 0 0 0 0 0 0 0 0 0 0 0 0
2 6 8 11 4 3 6 13 1 18 51 68 49 38 6 0 0 0 0 0 0 0 17 8 6 6 5 0 0 0 0 0 0 0 0 0 0 0 0 0 0 0 0
5 10 0 1 3 0 0 18 27 15 56 59 81 68 30 6 0 0 0 0 0 0 6 8 13 28 20 0 0 0 0 0 0 0 0 0 0 0 0 0 0 0 0
0 0 0 0 5 13 8 4 3 41 69 61 88 65 38 46 13 1 28 10 20 23 7 0 0 3 1 0 2 9 10 1 0 0 0 0 1 0 0 0 0 0 0
0 0 0 0 0 13 15 8 7 28 86 54 66 55 63 32 70 77 55 43 52 39 13 0 0 4 13 15 19 21 22 2 0 0 2 7 5 4 8 5 0 0 0
0 0 0 0 0 0 1 0 3 0 0 0 0 0 1 8 32 57 97 71 77 33 22 13 12 18 34 43 34 35 16 13 21 0 9 0 5 6 3 10 2 2 2
0 0 0 0 0 0 0 0 0 0 0 0 0 0 0 0 16 22 34 59 57 49 55 35 53 34 55 61 52 21 18 10 16 18 7 1 9 3 2 2 2 0 0
0 0 0 0 0 0 0 0 0 0 0 0 0 0 0 0 0 32 56 55 66 99 116 76 91 98 99 88 62 28 23 23 1 12 4 12 5 0 7 4 2 7 9

GFSSE_con_mucape_078.txt.gz
CAPE
1126 1470 1718 1704 1647 1475 1418 1293 1596 1593 1549 1585 1481 1330 1285 1308 1226 1089 971 833 702 566 93 14 45 21 28 20 23 26 43 37 47 56 35 41 26 14 19 17 36 35 50
1370 1510 1619 1650 1630 1590 1538 1349 1444 1685 1740 1714 1510 1421 1324 1344 1103 876 675 586 548 428 36 20 15 17 29 28 20 15 35 46 49 64 49 36 56 68 63 60 52 43 35
1597 1538 1338 1297 1474 1603 1236 1248 1503 1808 1842 1637 1615 1472 1415 1203 956 726 685 593 567 426 49 26 19 16 18 19 15 14 16 14 21 16 11 19 43 81 73 65 47 44 37
1549 1416 1152 1048 1048 987 857 910 978 1779 1691 1658 1615 1458 1306 1071 804 767 650 515 544 466 61 24 30 15 9 12 9 8 2 0 0 0 0 14 30 52 41 39 32 29 23
1042 1163 948 539 333 337 342 214 663 1302 1518 1560 1444 1394 1272 1009 860 735 544 481 555 612 252 175 70 23 4 10 11 4 0 0 0 0 0 3 6 9 23 14 20 22 19
922 1315 985 423 388 403 315 111 38 641 1147 1389 1307 1274 1137 936 709 525 453 463 524 316 20 20 32 6 2 6 6 1 0 0 0 0 0 4 4 26 18 19 20 17 12
775 668 907 390 218 130 278 96 112 167 817 959 1208 968 941 752 442 323 349 398 222 24 3 13 6 0 0 0 0 0 0 0 0 0 0 2 7 21 25 19 18 18 16
670 552 578 649 428 320 550 711 494 388 599 807 896 837 821 528 291 251 297 166 6 0 19 18 3 0 0 0 0 0 0 0 0 0 0 3 16 22 24 17 14 15 16
514 490 357 412 279 137 110 176 374 504 492 578 619 702 546 302 180 168 113 6 0 5 91 2 0 0 0 0 0 0 0 0 0 0 0 3 20 20 15 15 15 13 13
434 297 265 186 314 104 86 97 101 245 235 288 343 387 344 198 142 50 7 0 0 0 20 0 0 0 0 0 0 0 0 0 0 0 0 4 19 13 15 10 10 10 8
206 298 302 116 85 53 31 109 94 240 148 97 164 218 213 67 28 0 0 0 0 0 0 0 0 0 0 0 0 0 0 0 0 0 0 19 18 14 11 7 7 8 7
215 200 192 245 124 45 55 22 126 52 41 68 103 140 142 41 1 0 0 0 0 0 0 5 14 0 0 0 0 0 0 0 0 0 0 12 7 9 8 8 4 4 1
95 121 112 76 180 120 7 18 41 20 16 2 34 143 66 0 1 0 0 0 0 0 0 1 3 0 0 0 0 0 0 0 0 0 4 13 9 5 6 7 2 0 0
26 135 82 44 2 0 2 19 33 51 8 2 34 56 41 3 0 0 0 0 0 0 0 0 0 0 0 0 0 0 0 0 0 0 4 13 7 6 5 3 0 0 0
3 44 16 16 35 2 0 0 36 13 4 20 30 41 15 6 0 0 4 2 0 0 2 0 0 0 0 0 0 0 0 0 0 0 0 7 9 3 2 0 0 0 0
9 4 6 8 5 0 0 0 7 10 17 46 62 48 16 4 9 17 15 9 4 0 1 0 0 0 0 0 0 0 0 0 0 0 0 0 0 14 8 0 0 0 0
10 8 1 10 6 8 8 0 3 8 6 56 67 17 7 13 10 27 19 6 6 12 7 0 0 0 0 0 0 0 0 0 0 0 0 0 0 2 5 1 0 0 0
18 6 26 7 16 33 4 3 4 4 36 57 75 21 3 3 18 7 1 8 17 23 12 6 1 0 0 0 0 0 0 0 0 0 0 0 0 0 0 0 0 0 0
1 15 8 16 6 2 30 5 3 3 41 42 67 42 12 4 3 15 5 21 27 31 38 22 13 0 0 0 0 0 0 0 0 0 0 0 0 0 0 0 0 0 0
2 12 39 4 5 6 4 2 3 6 17 28 36 44 36 0 0 4 2 2 12 27 33 47 36 15 5 1 2 0 0 0 0 0 0 0 0 0 0 0 0 0 0
6 7 10 10 27 1 3 9 18 0 0 44 36 51 90 4 0 0 0 0 0 0 10 11 18 22 12 0 0 0 0 0 0 0 0 0 0 0 0 0 0 0 0
2 2 0 11 6 5 15 6 2 3 0 10 65 48 57 0 0 0 0 0 0 0 1 3 2 11 17 9 0 0 0 0 3 5 8 19 5 5 8 19 9 2 8
2 5 3 1 13 4 5 4 6 16 33 55 80 87 74 37 34 5 0 0 7 4 7 5 0 4 7 6 4 1 3 1 0 0 6 1 0 14 5 20 7 3 1
0 1 1 1 2 11 6 2 4 5 4 0 42 94 71 71 70 21 8 19 64 37 16 19 11 4 2 0 11 21 9 6 15 1 0 2 2 5 9 4 14 13 4
0 0 0 0 0 0 4 8 6 0 2 4 24 43 64 68 41 60 75 87 84 67 63 57 25 3 2 2 11 15 12 19 1 41 41 0 0 0 6 8 11 7 2
0 0 0 0 0 0 0 0 0 0 0 0 0 0 0 6 19 38 43 69 101 97 64 72 74 40 37 10 16 26 18 28 28 32 11 1 0 5 23 10 12 19 17

GFSSE_con_mucape_081.txt.gz
CAPE
1008 1366 1623 1817 1754 1616 1618 1800 1602 1440 1584 1634 1539 1380 1210 1271 1283 1261 1224 1115 894 843 259 67 290 48 37 22 26 51 61 74 61 49 47 23 20 18 43 41 59 12 30
1159 1653 1614 1811 1814 1681 1669 1918 1819 1782 1799 1767 1533 1375 1434 1410 1378 1371 1244 1027 795 356 79 21 41 40 30 23 48 44 51 70 60 54 75 44 41 32 31 21 39 3 9
1629 1918 1793 1652 1806 1775 1771 2020 2002 2005 1987 1829 1591 1595 1607 1537 1429 1225 968 822 626 378 18 21 27 42 28 32 29 25 15 15 27 36 74 32 32 40 25 13 14 10 16
1695 1688 1798 1577 1681 1671 1733 1755 1977 2117 2004 1805 1754 1712 1595 1447 1246 1119 858 654 555 403 26 20 16 30 22 18 16 4 2 0 0 12 30 20 27 39 29 27 20 28 25
1336 1572 1431 1322 1327 1399 1243 946 1324 1579 895 1568 1802 1737 1488 1338 1305 1120 748 587 481 327 22 26 22 11 10 18 8 5 0 0 2 9 16 14 13 22 21 21 21 17 17
730 1402 1144 1077 1156 1280 1083 982 727 591 815 1047 1602 1606 1418 1336 1276 1009 680 487 502 437 374 25 13 8 10 9 7 1 0 0 2 5 12 12 15 23 26 20 18 18 18
743 1431 994 737 919 730 631 780 630 464 569 683 1314 1397 1257 1262 1143 815 625 585 481 446 329 67 6 2 5 6 2 0 0 0 0 2 7 14 25 21 23 22 12 17 16
571 1191 1027 350 408 460 846 484 318 560 494 781 869 1077 1081 951 851 684 518 287 182 286 245 22 2 1 2 2 0 0 0 0 0 2 5 15 24 23 22 21 16 16 12
727 767 581 527 517 693 466 417 169 269 412 361 695 718 608 530 501 502 228 86 141 255 110 6 0 2 4 1 0 0 0 0 3 5 5 14 20 18 21 17 13 12 12
457 409 532 441 300 154 255 261 340 242 125 239 389 289 227 260 362 141 76 118 210 187 73 2 0 3 3 0 0 0 0 0 1 2 4 17 23 20 17 13 13 9 8
331 348 383 362 357 106 141 118 237 340 204 232 325 194 110 183 118 67 21 151 252 127 21 0 0 0 0 0 0 0 0 0 0 3 4 31 21 18 15 11 9 6 4
169 141 262 344 269 318 230 112 370 102 134 107 175 33 6 25 32 45 30 106 177 77 33 0 0 0 0 0 0 0 0 0 0 2 7 27 17 13 9 7 7 6 5
27 95 121 292 83 92 82 45 143 187 84 75 29 15 12 65 37 7 3 7 64 105 17 0 0 0 0 0 0 0 0 0 0 0 5 21 15 12 5 3 4 2 0
5 39 184 76 111 127 70 41 40 107 46 49 5 19 10 67 17 8 0 0 0 21 80 1 0 0 0 0 0 0 0 0 0 0 5 12 15 7 7 2 0 0 0
1 10 27 76 57 36 31 7 15 31 36 21 1 22 16 4 0 0 0 0 3 6 1 0 0 0 0 0 0 0 0 0 0 0 1 9 13 10 5 1 0 0 0
2 9 2 23 78 31 2 6 23 18 21 5 16 43 11 0 0 0 0 8 9 12 8 0 0 0 0 0 0 0 0 0 0 0 1 0 7 14 8 0 0 0 0
8 5 11 6 29 0 8 16 8 5 3 8 50 40 29 0 0 0 2 26 2 1 0 0 0 0 0 0 0 0 0 0 0 0 0 2 3 7 12 8 2 0 0
3 9 10 17 6 7 0 3 4 13 34 33 65 39 22 3 21 33 34 17 6 5 0 0 0 0 0 0 0 0 0 0 0 0 0 0 1 4 6 16 11 0 0
1 13 6 27 16 7 1 5 10 8 9 21 57 39 23 30 47 40 25 15 14 3 3 4 0 0 0 0 0 0 0 0 0 0 0 0 0 0 1 0 1 0 0
2 7 16 18 10 7 0 4 5 5 18 86 70 31 18 41 38 17 4 6 3 3 25 30 26 13 8 1 3 0 0 0 0 0 0 0 0 0 0 0 0 0 0
5 1 17 17 8 1 1 1 0 6 0 93 63 29 36 22 11 13 0 0 2 7 32 18 37 38 25 20 24 12 0 0 0 0 0 1 1 4 1 4 8 1 3
4 12 0 1 5 1 6 7 3 28 44 52 42 43 37 29 3 0 0 2 0 4 0 21 11 7 16 24 21 19 4 0 7 3 0 3 11 8 13 5 2 4 3
5 4 0 0 3 3 0 5 3 14 21 8 0 0 60 26 2 0 1 1 2 0 1 2 0 0 9 6 6 14 12 13 7 0 0 0 0 0 7 2 0 2 5
0 5 0 5 4 11 1 8 0 0 0 0 0 0 31 29 2 0 13 9 18 4 0 1 8 1 0 1 3 6 3 12 19 9 12 2 13 3 0 0 4 6 2
0 3 0 0 0 0 7 3 0 0 2 14 2 4 68 47 31 8 19 21 27 5 17 24 13 19 2 0 1 0 0 3 12 31 4 16 23 7 0 0 2 1 6
0 2 3 0 0 0 0 0 0 6 10 4 2 62 78 64 42 53 26 7 13 14 26 46 43 39 28 10 10 5 5 24 14 9 6 6 12 3 0 0 0 6 1

GFSSE_con_mucape_084.txt.gz
CAPE
1401 1361 1587 1719 1706 1715 1971 1900 1572 1516 1620 1718 1650 1435 1277 1345 1384 1341 1202 1010 935 866 475 264 435 188 48 39 22 63 108 49 38 88 49 64 61 48 20 61 49 28 44
1513 1457 1492 1782 1817 1837 2065 1915 1690 1659 1771 1862 1676 1377 1360 1504 1572 1438 1274 1045 946 872 302 186 97 37 30 31 44 136 57 45 39 42 51 40 39 23 5 11 29 13 17
1462 1773 1717 1702 1840 1944 2167 2041 1877 1950 2036 1935 1686 1475 1658 1718 1692 1549 1326 1111 979 803 213 180 43 22 24 14 35 50 49 57 78 88 81 28 21 17 7 9 10 10 13
1398 1952 1964 1695 1813 1934 1927 1909 1917 2137 2062 1872 1703 1717 1789 1788 1761 1470 1149 804 665 681 114 137 44 32 25 13 16 12 6 14 46 61 14 16 20 18 11 10 11 14 13
1248 1816 2067 1648 1758 1914 1956 1876 1412 1218 1748 1692 1689 1918 1897 1848 1666 1367 958 666 598 519 172 92 37 34 20 16 14 9 0 0 2 41 24 17 15 15 17 14 15 12 25
1091 1433 1775 1446 1509 1839 1345 1351 755 702 960 827 1073 1206 1823 1712 1575 1222 872 737 564 519 197 25 33 28 13 11 9 0 0 0 13 7 17 16 10 18 17 9 13 17 19
885 1112 1524 1284 1300 1556 1069 720 831 1042 778 678 706 911 1259 1534 1304 1031 814 584 519 323 169 17 12 8 5 1 0 0 0 0 6 4 2 9 17 20 17 18 14 14 12
884 918 1310 1053 1064 900 968 753 544 639 795 710 404 728 1080 1254 1111 898 776 668 568 316 92 13 13 4 2 0 0 0 0 0 0 2 4 9 26 18 20 17 13 13 13
667 931 897 985 874 455 701 417 536 618 680 495 364 479 713 877 772 841 770 625 540 208 7 5 5 5 2 0 0 0 0 1 0 4 1 10 18 23 18 18 17 17 17
283 580 674 875 913 709 628 370 184 413 355 443 438 351 399 411 526 428 366 492 295 144 4 3 3 2 1 0 0 0 0 0 4 1 1 7 21 16 17 18 15 13 13
174 178 460 658 472 213 404 406 284 292 343 242 196 253 168 195 395 208 215 283 193 76 3 0 1 1 0 0 0 0 0 0 1 3 2 27 21 16 16 14 13 13 11
336 215 105 377 275 213 290 209 175 527 234 160 95 200 96 120 165 186 250 209 143 12 0 1 2 0 0 0 0 0 0 1 2 0 5 29 22 17 16 13 8 6 5
42 41 141 138 158 194 194 167 319 1108 545 217 83 77 137 76 123 262 273 259 104 0 0 0 0 0 0 0 0 0 0 0 2 3 7 24 17 17 16 10 6 4 2
5 0 23 42 187 48 67 209 275 505 441 390 80 35 20 18 62 165 213 135 85 22 0 0 0 1 0 0 0 0 0 0 1 12 15 24 25 15 10 5 4 1 0
8 4 0 21 77 40 70 112 66 285 117 51 19 15 7 18 29 70 159 169 117 85 41 6 4 0 0 0 0 0 0 0 3 7 8 14 25 15 8 5 0 0 0
22 2 0 3 20 5 28 76 23 5 18 26 30 2 9 8 27 26 40 28 127 163 94 25 2 0 0 0 0 0 0 0 0 3 1 4 10 21 13 2 0 0 0
6 2 0 6 10 14 6 1 0 18 8 1 3 3 8 51 68 31 2 0 3 20 42 7 10 0 0 0 0 0 0 0 0 0 1 3 5 12 15 9 0 0 0
4 3 0 2 12 5 0 0 12 0 7 6 6 6 51 60 24 8 0 0 1 1 0 0 0 0 0 0 0 0 0 0 0 0 0 3 7 2 5 23 14 1 0
2 6 0 0 10 2 0 1 0 3 2 39 15 34 40 18 3 0 0 0 7 0 0 0 0 0 0 0 0 0 0 0 0 0 0 0 3 6 14 4 18 26 2
7 12 0 2 30 24 1 1 2 2 0 1 34 29 10 0 2 13 7 21 13 0 0 0 0 0 0 0 0 0 0 0 0 0 0 0 0 0 0 0 0 0 0
14 5 0 8 26 12 7 6 2 4 0 0 38 39 34 12 8 15 17 1 4 2 0 0 1 3 1 1 0 0 26 19 10 0 0 0 0 0 3 6 5 1 1
14 9 0 31 0 14 5 6 12 6 1 0 41 58 42 13 0 13 20 0 3 0 6 15 8 15 18 13 3 13 20 8 21 15 5 2 0 0 0 1 7 3 2
19 21 4 0 1 4 3 5 2 8 8 0 107 52 56 47 10 17 8 17 22 77 62 39 5 13 10 4 9 21 117 120 72 1 3 1 0 6 0 0 3 3 1
15 16 19 1 0 2 1 7 0 0 0 0 1 54 63 100 92 25 32 38 90 58 55 80 36 38 29 47 0 2 25 119 130 102 2 2 8 2 2 1 4 0 0
7 9 20 0 4 7 8 5 3 0 0 62 3 0 0 112 116 56 54 57 89 65 78 102 77 94 66 99 112 109 9 4 9 70 102 26 0 2 16 4 0 0 0
3 2 21 0 9 1 9 8 2 0 0 0 3 1 0 81 107 135 76 84 90 78 86 154 182 162 128 141 144 137 146 103 80 69 74 70 64 26 1 11 2 0 0

GFSSE_con_mucape_087.txt.gz
CAPE
1584 1664 1524 1603 1729 2020 2037 1744 1638 1588 1649 1764 1707 1424 1286 1483 1468 1318 1148 1114 1072 981 405 323 489 534 333 90 20 293 398 310 229 254 217 59 49 33 35 175 89 35 135
1864 1864 1515 1762 1796 2025 2185 1921 1715 1671 1799 1936 1692 1466 1517 1601 1567 1372 1355 1291 1145 1031 435 374 350 294 116 48 168 199 126 95 134 160 191 35 31 28 14 18 39 13 21
1867 1845 1721 1614 1682 2064 2319 2080 1851 1838 1980 2014 1725 1603 1683 1750 1656 1510 1437 1282 1144 983 449 296 213 119 75 71 141 171 113 77 99 138 69 16 20 16 14 12 20 11 16
1782 2090 2032 1592 1757 1949 2169 1754 1822 2008 2134 1997 1704 1696 1833 1906 1715 1614 1387 1102 1077 1023 395 155 49 55 43 21 32 135 142 128 51 45 13 14 18 15 10 8 8 12 10
1637 1890 2261 1649 1688 2002 1902 1684 1595 1687 1416 1582 1612 1859 1970 2007 1814 1574 1303 1072 1022 942 392 144 75 28 8 16 19 28 26 35 38 17 15 17 22 13 12 7 9 10 20
1299 1873 1926 1695 1700 1983 1667 1313 1198 861 702 839 1300 1476 1692 1565 1660 1156 981 874 868 926 540 174 87 17 11 7 7 11 7 0 20 8 6 18 12 31 20 5 5 7 24
1252 1486 1869 1537 1378 1939 1985 1226 678 385 444 126 69 535 970 1102 1302 1078 864 781 795 744 499 161 38 2 0 0 0 0 0 0 11 6 6 8 19 18 22 19 16 14 15
1115 1333 1474 1453 1116 1281 1427 917 551 496 194 156 154 601 637 748 660 755 722 654 525 283 174 80 31 1 0 0 0 0 0 0 12 9 4 10 25 21 20 17 16 14 14
874 1067 1387 1659 1066 936 764 638 522 373 332 501 254 312 249 443 416 538 685 539 417 192 66 16 13 5 0 0 0 0 0 3 10 4 5 11 25 18 18 14 15 15 15
661 913 1102 1431 1439 1056 978 255 240 291 226 221 308 175 139 197 359 399 534 477 273 128 37 13 5 0 0 0 0 0 0 1 5 4 3 12 24 22 19 14 14 14 14
529 689 887 1095 1118 897 916 691 188 192 192 176 140 109 83 168 288 395 343 252 137 57 10 10 4 1 0 0 0 0 0 11 9 4 2 30 27 25 22 18 14 13 12
535 554 546 586 805 955 563 609 481 411 340 386 192 163 124 149 249 367 335 135 74 56 15 8 2 0 0 0 0 0 7 16 22 5 7 36 21 25 19 13 12 12 11
483 306 220 67 220 510 682 464 382 636 402 236 178 117 93 117 125 342 299 238 85 4 0 0 0 0 0 0 0 2 7 9 19 5 12 33 27 21 18 12 7 7 7
276 23 31 0 5 44 67 48 504 828 676 192 55 38 111 90 88 311 314 176 21 5 0 0 0 5 0 0 0 1 1 13 21 5 10 19 33 16 14 10 7 4 2
305 101 55 3 12 52 50 33 118 370 627 159 100 29 73 40 54 99 190 158 27 31 21 2 12 0 0 0 0 0 2 10 12 2 4 16 21 20 9 9 5 0 0
182 37 45 8 0 5 4 61 110 178 291 106 46 23 30 26 19 82 185 159 207 102 67 59 32 0 0 0 0 2 4 4 12 3 3 12 22 24 15 4 1 0 0
155 97 9 10 0 0 9 4 12 68 0 0 8 9 11 14 16 66 152 194 241 220 233 152 47 0 0 0 0 0 0 1 7 11 1 4 5 10 11 14 2 0 0
138 55 7 0 0 2 3 3 1 0 0 8 51 13 10 5 3 0 110 173 237 261 164 86 40 2 0 0 0 0 0 0 3 12 12 7 1 2 2 15 13 5 0
105 29 6 0 2 2 8 1 0 0 1 8 15 2 3 7 0 2 84 114 118 118 102 91 55 39 11 0 0 0 0 0 0 0 8 11 10 4 0 0 0 4 0
66 6 13 1 6 11 2 0 2 0 0 6 4 4 1 3 3 63 52 25 7 0 45 23 33 11 9 0 0 0 0 0 0 0 1 1 5 2 3 4 0 0 0
85 6 5 0 3 29 10 0 1 0 0 2 0 2 3 0 31 50 36 43 5 0 0 9 19 24 0 0 0 0 0 0 0 0 0 0 0 0 0 2 21 2 0
87 7 7 1 3 1 5 6 4 2 1 3 4 0 21 21 37 105 140 62 20 8 8 28 64 7 0 0 5 0 0 0 9 8 3 0 0 0 0 4 6 1 0
54 5 5 0 0 15 0 1 2 8 7 1 0 0 25 27 40 68 206 83 107 84 109 173 140 65 42 5 7 81 129 140 78 10 1 0 0 0 0 0 0 1 0
228 6 21 4 0 0 0 1 0 0 0 1 0 0 0 97 42 2 57 124 98 111 156 188 163 248 221 88 18 22 77 113 112 142 27 0 0 0 1 11 0 0 4
382 6 19 12 1 11 0 3 0 0 0 1 1 0 83 111 102 41 26 146 257 223 299 343 314 196 177 180 139 91 56 50 169 74 29 69 0 0 2 12 11 11 2
351 63 20 19 0 0 0 6 0 0 0 2 4 1 0 51 51 55 70 192 205 303 310 380 343 255 322 338 210 296 198 119 53 115 102 215 142 27 11 7 3 1 9

GFSSE_con_mucape_090.txt.gz
CAPE
1573 1452 1484 1699 1874 2058 1792 1599 1563 1355 1214 1684 1510 1347 1586 1467 1213 1034 996 902 865 886 362 328 814 609 421 477 410 616 519 413 363 431 424 227 165 125 51 227 94 27 143
1892 1687 1574 1813 1974 2204 1976 1745 1622 1658 1603 1849 1535 1430 1601 1489 1312 1281 1228 1223 1126 837 598 753 610 345 207 200 519 503 382 293 215 200 276 112 52 62 40 103 49 39 22
1955 1842 1498 1588 1964 2248 2224 1962 1787 1785 1904 1941 1599 1630 1721 1635 1505 1499 1414 1253 1186 1211 758 590 432 309 83 258 329 357 413 299 182 63 18 3 11 26 31 17 19 13 15
1824 2316 1998 1672 1742 2226 2294 2054 1888 1886 2023 1987 1741 1790 1896 1755 1679 1643 1490 1292 1172 1133 689 500 396 208 99 317 253 249 237 77 20 34 0 3 8 27 26 20 11 8 6
1737 1975 2106 1727 1604 1902 2201 2046 1984 1880 1651 1624 1775 1892 1981 1885 1825 1759 1405 1195 1255 1177 576 375 287 86 116 172 170 157 45 54 30 0 0 4 9 20 10 10 11 17 21
1502 1927 1819 1819 1706 1926 1919 2029 1907 1738 1212 842 6 114 1560 1925 1776 1579 1214 1083 1055 1007 577 249 108 46 48 56 84 80 42 39 60 1 0 14 3 31 26 17 13 13 36
1480 2005 1903 1563 1604 1913 1964 1859 1758 1226 792 420 115 2 89 1072 1189 989 1012 1040 950 901 538 94 45 38 27 11 14 0 6 12 6 0 0 0 7 20 13 8 14 8 15
1241 1895 1550 1352 1301 1501 1856 1379 1065 601 414 200 29 0 3 304 484 478 648 746 880 659 421 144 62 35 17 0 0 0 0 0 15 0 0 4 21 10 10 7 5 13 18
930 1255 1704 1374 1089 986 1179 1068 687 630 255 187 46 0 27 197 254 411 369 684 596 405 232 61 31 18 0 0 0 0 0 8 1 0 0 6 19 19 17 25 24 17 15
767 1081 1236 1457 1364 921 922 698 520 459 355 116 152 83 20 154 170 249 275 332 364 239 102 26 0 0 0 0 0 0 0 6 0 0 2 13 35 27 15 28 21 16 13
610 738 719 943 1240 1005 907 470 333 498 366 272 229 98 33 49 89 174 145 188 187 77 32 9 0 0 0 0 0 0 0 1 0 0 0 36 16 20 10 14 14 13 14
657 747 569 1045 1070 935 845 379 291 362 290 108 59 76 27 41 44 137 124 141 123 43 14 8 0 0 0 0 0 0 0 9 0 0 0 38 24 15 15 12 12 13 10
936 505 321 240 232 764 710 457 388 343 116 92 44 55 35 70 100 101 143 69 24 12 3 0 0 0 0 0 0 0 1 6 0 0 7 29 17 18 14 14 14 11 9
614 322 160 220 27 199 361 211 240 215 154 77 59 55 28 97 106 105 89 54 0 0 0 0 0 0 0 0 0 0 12 1 0 0 3 22 27 14 13 8 5 7 6
448 146 0 102 29 0 34 51 36 110 298 85 75 56 24 60 73 92 93 45 0 0 0 0 0 0 0 0 0 0 6 4 0 0 0 11 18 17 11 11 8 5 4
313 98 0 125 11 0 0 13 43 28 135 159 71 51 25 54 42 68 69 65 0 0 0 0 0 0 0 0 0 0 10 2 0 0 0 0 9 19 18 10 5 2 2
195 115 6 59 12 9 0 0 0 56 59 63 70 56 37 8 41 15 27 28 11 22 0 27 0 0 0 0 0 0 0 8 0 0 0 0 0 5 12 13 2 0 0
104 79 0 3 9 15 6 10 20 14 24 22 65 31 46 35 18 6 14 68 34 53 46 29 7 0 0 0 0 0 0 4 3 0 0 0 0 0 4 11 8 3 0
77 50 0 7 12 8 9 0 3 1 2 0 0 3 33 58 38 3 42 77 112 108 63 48 14 7 0 0 0 0 0 0 0 0 0 0 0 0 0 1 5 4 0
106 20 1 9 12 17 0 4 4 0 0 1 6 12 31 18 20 3 6 49 72 75 61 29 19 40 6 2 0 0 1 0 0 0 8 0 0 0 0 0 0 0 0
67 0 0 1 15 4 2 4 0 0 0 0 4 17 7 14 2 5 16 56 96 104 52 22 52 57 0 0 0 0 0 1 0 0 0 0 0 0 0 0 0 0 0
62 0 1 3 0 0 1 0 0 0 0 0 3 7 6 3 3 2 2 0 43 11 3 28 6 0 0 0 0 2 0 0 0 0 0 0 0 0 0 0 0 0 0
62 1 3 4 5 0 0 0 0 0 0 1 9 1 3 4 2 0 0 0 0 0 0 0 0 0 0 0 7 29 41 10 7 5 6 0 0 0 0 0 0 0 0
121 1 16 5 6 0 0 0 0 0 0 5 2 7 0 0 5 4 4 9 0 0 19 2 39 5 23 0 2 34 35 52 52 18 4 8 0 0 0 0 0 0 0
101 3 3 8 4 0 1 0 2 0 7 3 4 0 0 0 0 0 85 71 54 18 31 32 85 165 91 87 15 18 0 18 36 53 17 0 0 0 0 0 0 1 0
212 46 7 6 4 0 0 0 1 2 0 0 0 2 0 0 0 13 38 40 39 44 69 123 106 160 81 72 133 149 86 56 31 27 19 20 10 0 0 0 0 0 7

GFSSE_con_mucape_093.txt.gz
CAPE
1334 1208 1458 1946 1816 1681 1514 1405 1344 1597 1754 1628 1727 1725 1522 1408 1354 1340 1287 1174 1196 1197 815 912 1114 740 772 824 900 818 704 604 527 549 623 373 306 218 129 231 184 50 168
1454 1410 1459 1778 2044 1842 1726 1609 1284 1190 1737 1654 1815 1763 1503 1364 1330 1288 1202 1114 1006 731 801 895 785 728 713 642 765 657 550 389 338 379 372 233 153 177 95 81 121 62 94
1644 1504 1527 1617 2068 2023 1921 1847 1736 1453 1799 1699 1887 1834 1639 1522 1463 1452 1356 1140 1065 1178 840 781 645 630 664 720 676 500 320 118 83 95 38 5 28 95 77 41 40 32 33
1905 1903 1695 1573 2003 2262 2033 1904 1860 1994 2147 1905 1941 1940 1774 1658 1635 1586 1325 1147 1419 1427 892 563 405 548 638 743 570 420 242 46 3 1 0 7 25 79 69 35 11 9 15
1689 2059 1950 1641 1808 2209 2151 2037 1919 2027 2059 1866 1503 414 276 1025 1857 1675 1432 1302 1358 1434 826 644 325 405 590 450 325 112 59 31 0 0 1 10 16 57 40 22 13 5 17
1724 1977 1971 1596 1539 2058 2240 2208 2060 2001 1836 1031 490 193 116 97 983 1661 1365 1249 1382 1272 645 519 356 417 321 171 157 110 88 32 0 0 0 17 15 48 31 21 26 24 10
1807 1768 1726 1722 1668 1823 2114 2323 2113 1906 1659 925 400 149 55 7 65 1049 915 1253 1141 1007 794 433 230 240 210 175 76 18 16 6 0 0 0 10 17 34 17 16 21 12 15
1187 1406 1374 1471 1533 1727 1779 1692 1920 1796 1291 1045 633 288 94 5 7 360 578 882 945 720 484 315 190 202 132 40 2 0 3 0 0 0 0 14 32 41 36 13 9 14 17
813 1201 1119 1115 1239 1210 1532 1215 1302 1377 1054 835 372 89 16 2 94 347 522 634 790 462 347 224 110 94 54 6 0 0 0 0 0 0 0 16 38 34 16 22 8 4 4
451 646 1065 928 1439 755 1095 1209 861 780 605 314 127 20 8 0 98 255 196 395 438 364 283 126 52 47 24 0 0 0 0 0 0 0 0 16 40 19 15 16 16 16 14
249 494 660 931 1028 893 857 777 673 592 358 195 108 48 7 16 111 138 175 266 294 247 137 64 35 16 0 0 0 0 0 0 0 0 0 17 17 22 17 15 14 13 15
342 271 340 339 937 760 552 493 494 407 212 62 57 34 14 21 94 79 126 118 154 151 66 23 23 2 0 0 0 0 0 0 0 0 0 19 12 24 21 16 13 11 8
379 475 414 150 408 751 756 443 238 320 168 59 70 28 19 20 38 31 87 77 54 19 0 0 0 0 0 0 0 0 0 0 0 0 3 34 33 26 21 14 12 9 8
561 586 503 247 11 198 558 490 235 67 24 26 42 27 19 32 76 50 14 13 3 0 0 0 0 0 0 0 0 0 0 0 0 0 2 13 34 21 18 13 12 8 4
622 435 306 170 32 320 440 336 167 80 15 25 25 39 30 33 25 14 10 7 0 0 0 0 0 0 0 0 0 0 0 0 0 0 0 11 19 20 11 9 6 4 4
303 251 187 82 3 13 67 143 147 127 39 14 20 19 28 35 58 23 27 32 0 0 0 0 0 0 0 0 0 0 0 0 0 0 0 0 10 13 12 5 3 3 4
289 186 148 17 0 0 0 1 2 8 64 107 38 44 39 40 48 19 9 18 0 0 0 0 0 0 0 0 0 0 0 0 0 0 0 0 0 3 10 13 3 3 3
213 173 69 8 0 3 1 0 0 14 3 66 130 45 48 43 48 9 4 10 0 0 0 0 0 0 0 0 0 0 0 0 0 0 0 0 0 0 1 6 7 7 0
285 188 15 0 1 3 4 3 0 13 31 84 57 42 38 21 51 16 4 4 10 0 3 5 0 0 0 0 0 0 0 0 0 0 0 0 0 0 0 0 1 1 0
249 139 0 0 2 3 4 0 0 18 11 11 13 36 43 17 13 14 23 3 23 4 22 15 2 0 0 0 0 0 0 0 0 1 0 0 0 0 0 0 0 0 0
214 92 0 2 4 1 0 0 8 7 8 0 0 0 0 13 17 37 11 1 40 25 19 8 0 0 0 0 4 1 0 0 0 4 0 0 0 0 0 0 0 0 0
203 64 0 1 5 5 0 5 0 0 0 0 0 0 8 18 9 16 2 17 0 62 57 11 0 0 0 0 0 0 0 0 0 0 0 0 0 0 0 0 0 0 0
167 55 10 0 12 2 1 0 0 0 0 0 0 0 10 10 38 23 3 3 53 76 61 2 0 7 0 0 0 0 0 0 0 0 0 0 0 0 0 0 0 0 0
177 56 20 0 3 6 0 0 0 0 0 0 0 3 15 13 12 5 2 7 4 78 21 0 16 0 0 0 0 0 11 19 0 0 0 0 0 0 0 0 0 0 0
181 40 31 0 2 3 4 0 0 0 0 1 1 0 9 5 3 3 2 1 0 0 0 8 0 0 0 0 0 0 6 32 27 36 1 0 0 0 0 0 0 0 0
215 35 1 0 3 4 4 0 0 0 0 2 10 15 3 0 7 10 3 3 4 0 0 0 2 12 9 4 7 0 0 11 20 4 8 7 0 0 0 0 0 0 0